FW6030 Weather Reports


Display with metric or nautical units.
time (UTC)temp
F
wind
direction
speed
MPH
gust
MPH
rain 1hr
in
rain 24hr
in
rain mn
in
humidity
%
barometer
mb
20260902192738 99 360 2.0 4.0 0.00 0.00 0.00 43 1014.3
20260902192620 99 360 2.0 5.0 0.00 0.00 0.00 43 1014.3
20260902192523 99 360 2.0 5.0 0.00 0.00 0.00 43 1014.3
20260902192433 99 360 2.0 5.0 0.00 0.00 0.00 43 1014.3
20260902192315 99 360 2.0 5.0 0.00 0.00 0.00 43 1014.3
20260902192217 99 360 2.0 5.0 0.00 0.00 0.00 42 1014.3
20260902192131 99 360 2.0 5.0 0.00 0.00 0.00 42 1014.4
20260902192033 99 360 2.0 5.0 0.00 0.00 0.00 42 1014.3
20260902191943 100 360 2.0 5.0 0.00 0.00 0.00 42 1014.3
20260902191824 100 360 2.0 5.0 0.00 0.00 0.00 42 1014.4
20260902191754 100 360 2.0 5.0 0.00 0.00 0.00 42 1014.3
20260902191616 100 360 2.0 5.0 0.00 0.00 0.00 42 1014.4
20260902191518 100 360 2.0 5.0 0.00 0.00 0.00 42 1014.4
20260902191425 100 360 2.0 5.0 0.00 0.00 0.00 42 1014.6
20260902191314 100 360 2.0 6.0 0.00 0.00 0.00 42 1014.5
20260902191214 100 360 2.0 6.0 0.00 0.00 0.00 43 1014.5
20260902191124 100 360 2.0 6.0 0.00 0.00 0.00 42 1014.6
20260902191027 100 360 2.0 6.0 0.00 0.00 0.00 42 1014.6
20260902190929 100 360 3.0 6.0 0.00 0.00 0.00 41 1014.6
20260902190838 101 360 3.0 6.0 0.00 0.00 0.00 41 1014.6
20260902190743 101 360 3.0 6.0 0.00 0.00 0.00 40 1014.6
20260902190629 102 360 3.0 6.0 0.00 0.00 0.00 40 1014.7
20260902190530 102 360 3.0 6.0 0.00 0.00 0.00 40 1014.7
20260902190418 103 360 3.0 6.0 0.00 0.00 0.00 39 1014.7
20260902190321 103 360 3.0 6.0 0.00 0.00 0.00 40 1014.7
20260902190222 103 360 3.0 6.0 0.00 0.00 0.00 39 1014.7
20260902190130 103 360 2.0 5.0 0.00 0.00 0.00 39 1014.6
20260902190033 103 360 1.0 5.0 0.00 0.00 0.00 39 1014.6
20260902185918 103 360 1.0 4.0 0.00 0.00 0.00 39 1014.6
20260902185827 103 360 1.0 4.0 0.00 0.00 0.00 39 1014.7
20260902185723 103 263 2.0 4.0 0.00 0.00 0.00 40 1014.6
20260902185631 102 265 2.0 4.0 0.00 0.00 0.00 39 1014.7
20260902185533 102 360 2.0 4.0 0.00 0.00 0.00 39 1014.7
20260902185442 102 360 2.0 4.0 0.00 0.00 0.00 39 1014.7
20260902185316 102 360 2.0 4.0 0.00 0.00 0.00 39 1014.8
20260902185248 103 360 3.0 4.0 0.00 0.00 0.00 39 1014.8
20260902185136 103 360 3.0 4.0 0.00 0.00 0.00 38 1014.8
20260902185017 104 360 2.0 4.0 0.00 0.00 0.00 38 1014.9
20260902184919 104 360 2.0 4.0 0.00 0.00 0.00 38 1015.0
20260902184820 104 360 2.0 4.0 0.00 0.00 0.00 38 1014.9
20260902184749 104 360 2.0 5.0 0.00 0.00 0.00 37 1014.9
20260902184630 104 360 2.0 5.0 0.00 0.00 0.00 38 1014.9
20260902184524 104 360 2.0 5.0 0.00 0.00 0.00 38 1014.9
20260902184426 104 360 2.0 5.0 0.00 0.00 0.00 39 1015.0
20260902184329 104 360 2.0 5.0 0.00 0.00 0.00 39 1015.0
20260902184237 104 360 2.0 6.0 0.00 0.00 0.00 39 1014.9
20260902184137 103 360 3.0 6.0 0.00 0.00 0.00 39 1015.0
20260902184017 103 360 2.0 6.0 0.00 0.00 0.00 40 1014.9
20260902183925 102 360 2.0 6.0 0.00 0.00 0.00 40 1015.0
20260902183833 102 360 2.0 6.0 0.00 0.00 0.00 40 1014.9
20260902183717 102 257 2.0 6.0 0.00 0.00 0.00 40 1015.0
20260902183618 102 360 3.0 6.0 0.00 0.00 0.00 40 1015.0
20260902183527 103 360 3.0 6.0 0.00 0.00 0.00 38 1015.0
20260902183427 103 360 2.0 6.0 0.00 0.00 0.00 38 1015.0
20260902183337 104 360 2.0 6.0 0.00 0.00 0.00 38 1015.1
20260902183220 104 360 2.0 6.0 0.00 0.00 0.00 38 1015.1
20260902183117 105 360 2.0 6.0 0.00 0.00 0.00 37 1015.0
20260902183029 105 360 2.0 6.0 0.00 0.00 0.00 37 1015.1
20260902182929 105 360 2.0 10.0 0.00 0.00 0.00 37 1015.1
20260902182817 106 360 2.0 10.0 0.00 0.00 0.00 36 1015.1
20260902182717 107 360 1.0 10.0 0.00 0.00 0.00 36 1015.1
20260902182646 107 360 1.0 10.0 0.00 0.00 0.00 37 1015.2
20260902182524 106 360 2.0 10.0 0.00 0.00 0.00 37 1015.1
20260902182433 106 360 3.0 10.0 0.00 0.00 0.00 37 1015.1
20260902182353 106 360 3.0 10.0 0.00 0.00 0.00 37 1015.1
20260902182224 106 360 2.0 10.0 0.00 0.00 0.00 37 1015.2
20260902182120 106 216 2.0 9.0 0.00 0.00 0.00 37 1015.2
20260902182028 106 360 1.0 4.0 0.00 0.00 0.00 37 1015.2
20260902181936 106 360 1.0 4.0 0.00 0.00 0.00 37 1015.2
20260902181833 105 360 2.0 4.0 0.00 0.00 0.00 38 1015.2
20260902181721 105 360 2.0 4.0 0.00 0.00 0.00 38 1015.2
20260902181642 105 360 2.0 4.0 0.00 0.00 0.00 39 1015.2
20260902181529 104 360 2.0 4.0 0.00 0.00 0.00 39 1015.3
20260902181436 104 360 2.0 4.0 0.00 0.00 0.00 39 1015.3
20260902181315 103 360 1.0 6.0 0.00 0.00 0.00 41 1015.4
20260902181220 102 360 1.0 6.0 0.00 0.00 0.00 41 1015.3
20260902181149 101 360 2.0 6.0 0.00 0.00 0.00 42 1015.4
20260902181031 100 360 2.0 6.0 0.00 0.00 0.00 43 1015.4
20260902180914 99 360 1.0 8.0 0.00 0.00 0.00 43 1015.4
20260902180821 99 360 2.0 8.0 0.00 0.00 0.00 43 1015.4
20260902180750 98 360 3.0 8.0 0.00 0.00 0.00 44 1015.4
20260902180629 98 360 3.0 8.0 0.00 0.00 0.00 44 1015.5
20260902180539 98 360 3.0 8.0 0.00 0.00 0.00 44 1015.4
20260902180424 98 360 3.0 10.0 0.00 0.00 0.00 44 1015.4
20260902180326 98 360 4.0 10.0 0.00 0.00 0.00 45 1015.5
20260902180236 98 360 4.0 10.0 0.00 0.00 0.00 45 1015.5
20260902180131 97 360 4.0 10.0 0.00 0.00 0.00 44 1015.5
20260902180035 98 360 3.0 10.0 0.00 0.00 0.00 46 1015.5
20260902175918 97 360 4.0 10.0 0.00 0.00 0.00 46 1015.5
20260902175822 97 360 5.0 10.0 0.00 0.00 0.00 45 1015.5
20260902175725 97 360 5.0 10.0 0.00 0.00 0.00 45 1015.6
20260902175637 97 360 4.0 10.0 0.00 0.00 0.00 44 1015.6
20260902175518 98 360 4.0 9.0 0.00 0.00 0.00 44 1015.6
20260902175421 98 360 5.0 9.0 0.00 0.00 0.00 44 1015.7
20260902175329 98 360 4.0 9.0 0.00 0.00 0.00 44 1015.7
20260902175232 99 360 3.0 9.0 0.00 0.00 0.00 43 1015.7
20260902175115 99 360 3.0 8.0 0.00 0.00 0.00 42 1015.8
20260902175025 99 360 4.0 8.0 0.00 0.00 0.00 42 1015.8
20260902174932 100 360 4.0 8.0 0.00 0.00 0.00 42 1015.8
20260902174901 100 360 4.0 9.0 0.00 0.00 0.00 42 1015.8
20260902174723 99 360 2.0 10.0 0.00 0.00 0.00 43 1015.8
20260902174626 99 360 2.0 10.0 0.00 0.00 0.00 43 1015.9
20260902174528 99 360 2.0 10.0 0.00 0.00 0.00 43 1015.8
20260902174439 99 360 2.0 10.0 0.00 0.00 0.00 43 1015.8
20260902174345 99 360 3.0 10.0 0.00 0.00 0.00 43 1015.8
20260902174227 98 360 5.0 10.0 0.00 0.00 0.00 43 1015.9
20260902174137 99 360 5.0 10.0 0.00 0.00 0.00 42 1015.9
20260902174040 100 177 3.0 10.0 0.00 0.00 0.00 42 1015.9
20260902173921 100 360 3.0 10.0 0.00 0.00 0.00 42 1015.9
20260902173824 100 360 2.0 10.0 0.00 0.00 0.00 43 1015.9
20260902173713 99 360 3.0 10.0 0.00 0.00 0.00 44 1016.0
20260902173540 99 360 4.0 10.0 0.00 0.00 0.00 43 1016.0
20260902173422 99 360 3.0 9.0 0.00 0.00 0.00 44 1015.9
20260902173324 99 360 2.0 9.0 0.00 0.00 0.00 44 1015.9
20260902173234 98 360 2.0 9.0 0.00 0.00 0.00 45 1016.1
20260902173137 98 360 2.0 9.0 0.00 0.00 0.00 45 1016.1
20260902173045 98 360 4.0 9.0 0.00 0.00 0.00 44 1016.1
20260902172931 98 360 5.0 9.0 0.00 0.00 0.00 44 1016.0
20260902172815 98 360 5.0 9.0 0.00 0.00 0.00 44 1016.0
20260902172717 99 360 4.0 8.0 0.00 0.00 0.00 43 1016.1
20260902172627 99 360 3.0 8.0 0.00 0.00 0.00 42 1016.2
20260902172529 99 360 2.0 8.0 0.00 0.00 0.00 44 1016.0
20260902172432 99 360 2.0 8.0 0.00 0.00 0.00 44 1016.0
20260902172319 98 360 3.0 8.0 0.00 0.00 0.00 44 1016.1
20260902172229 99 360 4.0 8.0 0.00 0.00 0.00 43 1016.2
20260902172151 99 360 4.0 8.0 0.00 0.00 0.00 43 1016.2
20260902172013 100 360 4.0 8.0 0.00 0.00 0.00 42 1016.2
20260902171923 100 360 4.0 8.0 0.00 0.00 0.00 42 1016.2
20260902171846 100 135 3.0 6.0 0.00 0.00 0.00 41 1016.2
20260902171735 101 360 3.0 6.0 0.00 0.00 0.00 40 1016.2
20260902171641 102 360 2.0 6.0 0.00 0.00 0.00 40 1016.3
20260902171549 103 360 1.0 5.0 0.00 0.00 0.00 40 1016.3
20260902171431 102 360 1.0 2.0 0.00 0.00 0.00 41 1016.3
20260902171342 102 360 1.0 4.0 0.00 0.00 0.00 41 1016.3
20260902171223 102 360 1.0 5.0 0.00 0.00 0.00 41 1016.3
20260902171126 101 360 1.0 5.0 0.00 0.00 0.00 41 1016.4
20260902171036 101 360 1.0 5.0 0.00 0.00 0.00 40 1016.4
20260902170922 102 360 1.0 5.0 0.00 0.00 0.00 40 1016.4
20260902170845 102 360 1.0 6.0 0.00 0.00 0.00 41 1016.4
20260902170734 101 360 1.0 6.0 0.00 0.00 0.00 41 1016.4
20260902170637 101 360 2.0 6.0 0.00 0.00 0.00 42 1016.5
20260902170520 100 360 2.0 8.0 0.00 0.00 0.00 42 1016.4
20260902170423 100 360 3.0 10.0 0.00 0.00 0.00 42 1016.5
20260902170331 100 360 3.0 10.0 0.00 0.00 0.00 42 1016.5
20260902170217 101 360 3.0 10.0 0.00 0.00 0.00 41 1016.5
20260902170120 101 360 3.0 10.0 0.00 0.00 0.00 41 1016.5
20260902170050 101 360 2.0 10.0 0.00 0.00 0.00 41 1016.5
20260902165932 101 360 3.0 10.0 0.00 0.00 0.00 42 1016.5
20260902165815 101 360 4.0 9.0 0.00 0.00 0.00 43 1016.6
20260902165718 101 360 5.0 9.0 0.00 0.00 0.00 42 1016.6
20260902165631 101 360 4.0 9.0 0.00 0.00 0.00 42 1016.5
20260902165514 102 360 3.0 6.0 0.00 0.00 0.00 42 1016.5
20260902165417 102 360 2.0 6.0 0.00 0.00 0.00 42 1016.5
20260902165326 102 360 2.0 5.0 0.00 0.00 0.00 43 1016.5
20260902165229 101 360 2.0 5.0 0.00 0.00 0.00 43 1016.5
20260902165132 101 360 2.0 5.0 0.00 0.00 0.00 43 1016.6
20260902165046 100 360 2.0 8.0 0.00 0.00 0.00 44 1016.6
20260902164929 100 360 2.0 8.0 0.00 0.00 0.00 43 1016.6
20260902164836 100 360 2.0 8.0 0.00 0.00 0.00 44 1016.6
20260902164719 100 360 2.0 8.0 0.00 0.00 0.00 44 1016.7
20260902164621 99 360 3.0 8.0 0.00 0.00 0.00 44 1016.6
20260902164530 99 360 3.0 8.0 0.00 0.00 0.00 43 1016.7
20260902164414 100 360 3.0 8.0 0.00 0.00 0.00 43 1016.7
20260902163633 97 360 2.0 6.0 0.00 0.00 0.00 46 1016.7
20260902163517 97 360 2.0 8.0 0.00 0.00 0.00 46 1016.7
20260902163437 97 360 2.0 8.0 0.00 0.00 0.00 47 1016.7
20260902163317 97 360 1.0 10.0 0.00 0.00 0.00 47 1016.7
20260902163217 97 360 1.0 10.0 0.00 0.00 0.00 48 1016.7
20260902163118 96 360 1.0 10.0 0.00 0.00 0.00 49 1016.7
20260902163019 96 360 2.0 10.0 0.00 0.00 0.00 49 1016.7
20260902162918 96 360 3.0 10.0 0.00 0.00 0.00 48 1016.8
20260902162838 96 360 4.0 10.0 0.00 0.00 0.00 48 1016.8
20260902162720 96 360 4.0 10.0 0.00 0.00 0.00 48 1016.8
20260902162642 96 360 4.0 10.0 0.00 0.00 0.00 48 1016.8
20260902162520 96 360 4.0 10.0 0.00 0.00 0.00 47 1016.8
20260902162418 96 360 3.0 9.0 0.00 0.00 0.00 47 1016.8
20260902162318 97 360 2.0 6.0 0.00 0.00 0.00 47 1016.8
20260902162220 97 360 2.0 5.0 0.00 0.00 0.00 46 1016.8
20260902162122 97 360 3.0 5.0 0.00 0.00 0.00 46 1016.9
20260902162022 97 360 3.0 6.0 0.00 0.00 0.00 46 1016.9
20260902161925 98 360 2.0 6.0 0.00 0.00 0.00 46 1016.8
20260902161824 98 360 2.0 6.0 0.00 0.00 0.00 46 1016.8
20260902161725 98 360 2.0 6.0 0.00 0.00 0.00 46 1016.8
20260902161625 98 360 2.0 6.0 0.00 0.00 0.00 47 1016.8
20260902161525 98 360 3.0 6.0 0.00 0.00 0.00 48 1016.9
20260902161424 98 360 3.0 6.0 0.00 0.00 0.00 47 1016.8
20260902161322 99 360 3.0 6.0 0.00 0.00 0.00 46 1016.9
20260902161222 99 360 2.0 6.0 0.00 0.00 0.00 46 1016.8
20260902161125 99 360 2.0 5.0 0.00 0.00 0.00 47 1016.8
20260902161024 99 360 2.0 5.0 0.00 0.00 0.00 48 1016.8
20260902160924 98 360 2.0 5.0 0.00 0.00 0.00 48 1016.9
20260902160844 97 360 1.0 6.0 0.00 0.00 0.00 49 1016.8
20260902160724 97 360 2.0 6.0 0.00 0.00 0.00 48 1016.9
20260902160624 97 360 1.0 6.0 0.00 0.00 0.00 49 1016.9
20260902160525 96 360 2.0 6.0 0.00 0.00 0.00 49 1016.9
20260902160426 96 360 1.0 6.0 0.00 0.00 0.00 49 1016.9
20260902160330 96 360 1.0 6.0 0.00 0.00 0.00 49 1016.9
20260902160230 96 360 2.0 6.0 0.00 0.00 0.00 48 1016.9
20260902160131 96 360 2.0 6.0 0.00 0.00 0.00 48 1016.9
20260902160051 97 360 2.0 6.0 0.00 0.00 0.00 47 1016.9
20260902155931 98 360 2.0 6.0 0.00 0.00 0.00 47 1016.9
20260902155834 98 360 1.0 6.0 0.00 0.00 0.00 47 1016.9
20260902155732 98 360 1.0 6.0 0.00 0.00 0.00 47 1016.9
20260902155617 98 360 1.0 8.0 0.00 0.00 0.00 49 1016.9
20260902155517 97 360 1.0 8.0 0.00 0.00 0.00 50 1016.8
20260902155416 97 360 2.0 8.0 0.00 0.00 0.00 50 1016.8
20260902155337 96 360 3.0 8.0 0.00 0.00 0.00 50 1016.8
20260902155216 96 360 3.0 8.0 0.00 0.00 0.00 50 1016.9
20260902155117 96 360 4.0 8.0 0.00 0.00 0.00 50 1016.8
20260902155037 96 360 4.0 8.0 0.00 0.00 0.00 49 1016.9
20260902154933 97 360 3.0 8.0 0.00 0.00 0.00 49 1016.9
20260902154817 97 360 3.0 8.0 0.00 0.00 0.00 48 1016.8
20260902154716 98 360 2.0 5.0 0.00 0.00 0.00 49 1016.9
20260902154616 97 360 2.0 5.0 0.00 0.00 0.00 50 1016.8
20260902154517 97 360 2.0 8.0 0.00 0.00 0.00 51 1016.8
20260902154437 97 360 2.0 8.0 0.00 0.00 0.00 51 1016.9
20260902154317 97 360 2.0 8.0 0.00 0.00 0.00 51 1016.9
20260902154218 96 360 1.0 8.0 0.00 0.00 0.00 52 1016.8
20260902154123 96 360 1.0 8.0 0.00 0.00 0.00 52 1016.9
20260902154023 95 360 1.0 8.0 0.00 0.00 0.00 52 1016.8
20260902153924 95 360 2.0 8.0 0.00 0.00 0.00 52 1016.9
20260902153824 95 360 2.0 8.0 0.00 0.00 0.00 52 1016.8
20260902153725 94 360 4.0 8.0 0.00 0.00 0.00 52 1016.9
20260902153626 94 360 3.0 8.0 0.00 0.00 0.00 52 1016.9
20260902153526 94 360 3.0 8.0 0.00 0.00 0.00 54 1016.8
20260902153431 94 360 1.0 6.0 0.00 0.00 0.00 55 1016.8
20260902153332 94 360 2.0 6.0 0.00 0.00 0.00 56 1016.9
20260902153233 93 360 2.0 8.0 0.00 0.00 0.00 56 1016.8
20260902153132 93 360 2.0 9.0 0.00 0.00 0.00 56 1016.9
20260902153033 92 360 2.0 9.0 0.00 0.00 0.00 55 1016.8
20260902152933 92 360 2.0 9.0 0.00 0.00 0.00 56 1016.8
20260902152819 92 360 3.0 9.0 0.00 0.00 0.00 57 1016.9
20260902152717 92 360 4.0 9.0 0.00 0.00 0.00 56 1016.9
20260902152617 92 360 4.0 9.0 0.00 0.00 0.00 56 1016.8
20260902152517 92 360 4.0 9.0 0.00 0.00 0.00 56 1016.9
20260902152418 92 360 3.0 9.0 0.00 0.00 0.00 55 1016.8
20260902152317 92 360 4.0 9.0 0.00 0.00 0.00 56 1016.8
20260902152218 93 360 4.0 9.0 0.00 0.00 0.00 56 1016.9
20260902152142 93 360 4.0 8.0 0.00 0.00 0.00 56 1016.9
20260902152022 93 360 3.0 8.0 0.00 0.00 0.00 56 1016.8
20260902151923 93 360 4.0 8.0 0.00 0.00 0.00 56 1016.8
20260902151824 93 360 3.0 8.0 0.00 0.00 0.00 58 1016.8
20260902151724 92 360 2.0 8.0 0.00 0.00 0.00 58 1016.9
20260902151624 92 360 2.0 8.0 0.00 0.00 0.00 58 1016.7
20260902151524 92 360 3.0 8.0 0.00 0.00 0.00 58 1016.8
20260902151429 91 360 3.0 8.0 0.00 0.00 0.00 58 1016.8
20260902151328 91 360 3.0 8.0 0.00 0.00 0.00 59 1016.8
20260902151249 91 360 3.0 8.0 0.00 0.00 0.00 59 1016.8
20260902151147 91 360 4.0 8.0 0.00 0.00 0.00 59 1016.7
20260902151046 91 360 3.0 8.0 0.00 0.00 0.00 60 1016.8
20260902150925 91 360 3.0 8.0 0.00 0.00 0.00 61 1016.8
20260902150825 90 360 2.0 6.0 0.00 0.00 0.00 61 1016.8
20260902150726 90 360 2.0 8.0 0.00 0.00 0.00 62 1016.8
20260902150651 89 360 2.0 8.0 0.00 0.00 0.00 62 1016.8
20260902150529 89 360 2.0 8.0 0.00 0.00 0.00 62 1016.8
20260902150427 89 360 3.0 10.0 0.00 0.00 0.00 61 1016.8
20260902150327 90 360 3.0 10.0 0.00 0.00 0.00 61 1016.9
20260902150228 89 360 4.0 10.0 0.00 0.00 0.00 61 1016.8
20260902150129 89 360 4.0 10.0 0.00 0.00 0.00 61 1016.8
20260902150029 89 360 4.0 10.0 0.00 0.00 0.00 61 1016.8
20260902145934 89 360 3.0 10.0 0.00 0.00 0.00 62 1016.8
20260902145835 89 360 3.0 10.0 0.00 0.00 0.00 62 1016.9
20260902145735 89 360 3.0 10.0 0.00 0.00 0.00 62 1016.8
20260902145635 89 360 4.0 10.0 0.00 0.00 0.00 63 1016.9
20260902145534 89 360 3.0 10.0 0.00 0.00 0.00 63 1016.8
20260902145424 89 360 3.0 10.0 0.00 0.00 0.00 63 1016.9
20260902145328 89 360 3.0 10.0 0.00 0.00 0.00 63 1016.8
20260902145229 89 360 3.0 10.0 0.00 0.00 0.00 63 1016.9
20260902145128 88 360 4.0 10.0 0.00 0.00 0.00 63 1016.9
20260902145029 88 360 4.0 10.0 0.00 0.00 0.00 63 1016.8
20260902144930 88 360 4.0 10.0 0.00 0.00 0.00 63 1016.9
20260902144830 88 360 4.0 10.0 0.00 0.00 0.00 63 1016.9
20260902144731 88 360 4.0 10.0 0.00 0.00 0.00 63 1016.9
20260902144617 88 360 4.0 10.0 0.00 0.00 0.00 63 1016.9
20260902144516 88 360 5.0 10.0 0.00 0.00 0.00 64 1016.9
20260902144417 88 360 5.0 10.0 0.00 0.00 0.00 63 1016.9
20260902144318 88 360 5.0 10.0 0.00 0.00 0.00 63 1016.9
20260902144218 89 360 4.0 10.0 0.00 0.00 0.00 63 1016.9
20260902144118 89 360 4.0 10.0 0.00 0.00 0.00 63 1016.9
20260902144023 89 360 4.0 8.0 0.00 0.00 0.00 63 1016.9
20260902143923 89 360 3.0 8.0 0.00 0.00 0.00 63 1016.9
20260902143826 89 360 3.0 8.0 0.00 0.00 0.00 64 1016.9
20260902143744 89 360 3.0 8.0 0.00 0.00 0.00 65 1016.9
20260902143642 89 360 2.0 8.0 0.00 0.00 0.00 66 1016.9
20260902143542 89 360 1.0 6.0 0.00 0.00 0.00 67 1016.9
20260902143441 88 360 1.0 4.0 0.00 0.00 0.00 67 1016.9
20260902143342 88 360 2.0 4.0 0.00 0.00 0.00 67 1017.0
20260902143242 88 360 2.0 4.0 0.00 0.00 0.00 67 1017.0
20260902143125 88 360 2.0 4.0 0.00 0.00 0.00 66 1017.0
20260902143025 88 360 2.0 4.0 0.00 0.00 0.00 66 1017.0
20260902142926 88 322 2.0 4.0 0.00 0.00 0.00 67 1017.0
20260902142828 88 323 2.0 4.0 0.00 0.00 0.00 67 1017.0
20260902142728 88 360 1.0 4.0 0.00 0.00 0.00 67 1016.9
20260902142648 88 295 1.0 4.0 0.00 0.00 0.00 69 1017.0
20260902142527 87 360 1.0 4.0 0.00 0.00 0.00 69 1017.0
20260902142449 87 360 1.0 4.0 0.00 0.00 0.00 69 1017.0
20260902142331 87 360 1.0 4.0 0.00 0.00 0.00 70 1017.0
20260902142231 86 360 2.0 4.0 0.00 0.00 0.00 70 1017.0
20260902142131 86 360 2.0 4.0 0.00 0.00 0.00 69 1017.0
20260902142052 86 360 2.0 3.0 0.00 0.00 0.00 69 1017.1
20260902141951 86 360 3.0 3.0 0.00 0.00 0.00 69 1017.1
20260902141830 86 290 2.0 3.0 0.00 0.00 0.00 70 1017.0
20260902141730 86 360 2.0 3.0 0.00 0.00 0.00 72 1017.0
20260902141631 85 360 1.0 3.0 0.00 0.00 0.00 72 1017.0
20260902141535 85 360 1.0 3.0 0.00 0.00 0.00 72 1017.1
20260902141436 85 360 1.0 3.0 0.00 0.00 0.00 72 1017.0
20260902141335 84 360 1.0 3.0 0.00 0.00 0.00 72 1017.1
20260902141236 84 360 2.0 3.0 0.00 0.00 0.00 72 1017.0
20260902141135 84 360 1.0 3.0 0.00 0.00 0.00 72 1017.1
20260902141035 84 171 1.0 4.0 0.00 0.00 0.00 72 1017.0
20260902140936 84 360 1.0 3.0 0.00 0.00 0.00 72 1017.0
20260902140820 83 171 2.0 3.0 0.00 0.00 0.00 72 1017.1
20260902140720 83 360 2.0 3.0 0.00 0.00 0.00 72 1017.0
20260902140621 83 360 2.0 3.0 0.00 0.00 0.00 72 1017.0
20260902140542 83 360 1.0 3.0 0.00 0.00 0.00 73 1017.0
20260902140420 83 360 1.0 3.0 0.00 0.00 0.00 73 1017.1
20260902140321 83 360 1.0 3.0 0.00 0.00 0.00 73 1017.0
20260902140221 83 171 1.0 3.0 0.00 0.00 0.00 73 1017.1
20260902140126 82 171 1.0 3.0 0.00 0.00 0.00 74 1017.0
20260902140025 82 360 1.0 3.0 0.00 0.00 0.00 74 1017.1
20260902135926 82 170 0.0 2.0 0.00 0.00 0.00 74 1017.0
20260902135828 82 170 0.0 2.0 0.00 0.00 0.00 74 1017.1
20260902135728 82 171 0.0 2.0 0.00 0.00 0.00 75 1017.1
20260902135628 82 170 0.0 2.0 0.00 0.00 0.00 74 1017.1
20260902135529 82 170 0.0 2.0 0.00 0.00 0.00 75 1017.0
20260902135433 82 170 0.0 0.0 0.00 0.00 0.00 75 1017.0
20260902135354 82 170 0.0 0.0 0.00 0.00 0.00 76 1017.0
20260902135254 81 170 0.0 0.0 0.00 0.00 0.00 76 1017.0
20260902135133 81 170 0.0 0.0 0.00 0.00 0.00 76 1017.0
20260902135033 81 170 0.0 0.0 0.00 0.00 0.00 76 1017.0
20260902134934 81 170 0.0 0.0 0.00 0.00 0.00 76 1017.0
20260902134834 81 170 0.0 0.0 0.00 0.00 0.00 77 1016.9
20260902134719 81 170 0.0 0.0 0.00 0.00 0.00 77 1016.9
20260902134619 81 170 0.0 0.0 0.00 0.00 0.00 77 1016.9
20260902134520 81 170 0.0 0.0 0.00 0.00 0.00 77 1017.0
20260902134420 80 170 0.0 0.0 0.00 0.00 0.00 77 1016.9
20260902134321 80 170 0.0 0.0 0.00 0.00 0.00 77 1016.9
20260902134221 80 170 0.0 0.0 0.00 0.00 0.00 77 1016.9
20260902134125 80 170 0.0 0.0 0.00 0.00 0.00 77 1016.9
20260902134027 80 170 0.0 0.0 0.00 0.00 0.00 77 1016.8
20260902133948 80 360 0.0 0.0 0.00 0.00 0.00 77 1016.9
20260902133827 80 360 0.0 0.0 0.00 0.00 0.00 77 1016.9
20260902133728 80 170 0.0 0.0 0.00 0.00 0.00 77 1016.9
20260902133629 80 170 0.0 0.0 0.00 0.00 0.00 77 1016.9
20260902133529 80 171 0.0 0.0 0.00 0.00 0.00 77 1016.8
20260902133430 80 171 0.0 0.0 0.00 0.00 0.00 78 1016.8
20260902133334 80 170 0.0 0.0 0.00 0.00 0.00 77 1016.8
20260902133235 80 360 0.0 0.0 0.00 0.00 0.00 77 1016.8
20260902133135 80 360 0.0 0.0 0.00 0.00 0.00 77 1016.8
20260902133016 79 171 0.0 2.0 0.00 0.00 0.00 78 1016.8
20260902132917 79 171 0.0 2.0 0.00 0.00 0.00 78 1016.8
20260902132838 79 170 0.0 2.0 0.00 0.00 0.00 77 1016.8
20260902132721 79 170 0.0 2.0 0.00 0.00 0.00 77 1016.8
20260902132620 79 170 0.0 2.0 0.00 0.00 0.00 77 1016.8
20260902132521 79 360 0.0 2.0 0.00 0.00 0.00 77 1016.8
20260902132442 79 360 0.0 2.0 0.00 0.00 0.00 77 1016.8
20260902132322 79 171 1.0 2.0 0.00 0.00 0.00 77 1016.8
20260902132222 79 171 1.0 2.0 0.00 0.00 0.00 77 1016.8
20260902132124 79 171 1.0 2.0 0.00 0.00 0.00 77 1016.7
20260902132028 79 360 1.0 2.0 0.00 0.00 0.00 77 1016.8
20260902131929 79 360 1.0 2.0 0.00 0.00 0.00 77 1016.7
20260902131831 79 360 1.0 2.0 0.00 0.00 0.00 77 1016.7
20260902131729 79 360 1.0 2.0 0.00 0.00 0.00 78 1016.7
20260902131630 79 170 1.0 2.0 0.00 0.00 0.00 78 1016.6
20260902131530 79 171 1.0 2.0 0.00 0.00 0.00 78 1016.7
20260902131431 79 171 1.0 2.0 0.00 0.00 0.00 78 1016.7
20260902131335 79 170 1.0 2.0 0.00 0.00 0.00 78 1016.6
20260902131216 79 360 0.0 2.0 0.00 0.00 0.00 78 1016.6
20260902131116 79 360 0.0 2.0 0.00 0.00 0.00 78 1016.7
20260902131016 79 360 0.0 2.0 0.00 0.00 0.00 79 1016.6
20260902130917 79 360 1.0 2.0 0.00 0.00 0.00 79 1016.6
20260902130817 78 170 1.0 2.0 0.00 0.00 0.00 79 1016.6
20260902130721 78 170 1.0 2.0 0.00 0.00 0.00 79 1016.6
20260902130622 78 360 1.0 2.0 0.00 0.00 0.00 79 1016.6
20260902130522 78 360 1.0 2.0 0.00 0.00 0.00 79 1016.6
20260902130443 78 360 1.0 2.0 0.00 0.00 0.00 79 1016.6
20260902130341 78 170 1.0 2.0 0.00 0.00 0.00 79 1016.7
20260902130221 78 170 1.0 2.0 0.00 0.00 0.00 79 1016.6
20260902130122 78 170 1.0 2.0 0.00 0.00 0.00 79 1016.5
20260902130042 78 360 1.0 2.0 0.00 0.00 0.00 79 1016.6
20260902125925 78 360 1.0 2.0 0.00 0.00 0.00 79 1016.5
20260902125827 78 360 1.0 2.0 0.00 0.00 0.00 79 1016.6
20260902125726 78 360 1.0 2.0 0.00 0.00 0.00 79 1016.6
20260902125627 78 360 0.0 2.0 0.00 0.00 0.00 80 1016.5
20260902125528 78 360 0.0 1.0 0.00 0.00 0.00 80 1016.5
20260902125428 78 170 0.0 1.0 0.00 0.00 0.00 80 1016.6
20260902125329 77 360 0.0 1.0 0.00 0.00 0.00 80 1016.6
20260902125233 77 170 0.0 0.0 0.00 0.00 0.00 80 1016.5
20260902125132 77 360 0.0 0.0 0.00 0.00 0.00 80 1016.6
20260902125033 77 360 0.0 0.0 0.00 0.00 0.00 81 1016.5
20260902124953 77 170 0.0 0.0 0.00 0.00 0.00 81 1016.5
20260902124832 77 360 0.0 0.0 0.00 0.00 0.00 80 1016.5
20260902124753 77 360 0.0 0.0 0.00 0.00 0.00 80 1016.4
20260902124654 77 360 0.0 0.0 0.00 0.00 0.00 80 1016.5
20260902124533 77 360 0.0 0.0 0.00 0.00 0.00 80 1016.5
20260902124417 77 360 0.0 0.0 0.00 0.00 0.00 80 1016.4
20260902124318 77 171 0.0 0.0 0.00 0.00 0.00 80 1016.4
20260902124218 76 360 0.0 0.0 0.00 0.00 0.00 80 1016.4
20260902124120 76 360 0.0 0.0 0.00 0.00 0.00 80 1016.4
20260902124021 76 360 0.0 0.0 0.00 0.00 0.00 80 1016.4
20260902123921 76 360 0.0 0.0 0.00 0.00 0.00 80 1016.3
20260902123825 76 360 0.0 0.0 0.00 0.00 0.00 80 1016.3
20260902123725 76 360 0.0 0.0 0.00 0.00 0.00 80 1016.4
20260902123626 76 170 0.0 0.0 0.00 0.00 0.00 80 1016.3
20260902123526 76 360 0.0 0.0 0.00 0.00 0.00 80 1016.4
20260902123426 76 360 0.0 0.0 0.00 0.00 0.00 80 1016.4
20260902123327 76 360 0.0 0.0 0.00 0.00 0.00 80 1016.3
20260902123248 76 360 0.0 0.0 0.00 0.00 0.00 80 1016.4
20260902123148 76 360 0.0 0.0 0.00 0.00 0.00 80 1016.4
20260902123053 76 360 0.0 0.0 0.00 0.00 0.00 81 1016.3
20260902122932 76 360 0.0 0.0 0.00 0.00 0.00 81 1016.3
20260902122834 76 360 0.0 0.0 0.00 0.00 0.00 81 1016.2
20260902122734 76 360 0.0 0.0 0.00 0.00 0.00 81 1016.1
20260902122635 76 170 0.0 0.0 0.00 0.00 0.00 80 1016.2
20260902122516 76 170 0.0 0.0 0.00 0.00 0.00 80 1016.2
20260902122419 76 170 0.0 0.0 0.00 0.00 0.00 80 1016.2
20260902122321 76 170 0.0 0.0 0.00 0.00 0.00 80 1016.2
20260902122242 76 170 0.0 0.0 0.00 0.00 0.00 80 1016.2
20260902122121 76 170 0.0 0.0 0.00 0.00 0.00 80 1016.2
20260902122021 76 170 0.0 0.0 0.00 0.00 0.00 80 1016.2
20260902121922 76 170 0.0 0.0 0.00 0.00 0.00 80 1016.2
20260902121823 76 170 0.0 1.0 0.00 0.00 0.00 80 1016.1
20260902121728 76 170 0.0 1.0 0.00 0.00 0.00 80 1016.1
20260902121628 76 170 0.0 1.0 0.00 0.00 0.00 80 1016.1
20260902121528 76 170 0.0 1.0 0.00 0.00 0.00 80 1016.1
20260902121449 76 170 0.0 2.0 0.00 0.00 0.00 80 1016.1
20260902121329 76 170 0.0 2.0 0.00 0.00 0.00 80 1016.1
20260902121230 76 170 0.0 2.0 0.00 0.00 0.00 80 1016.1
20260902121131 76 170 0.0 2.0 0.00 0.00 0.00 80 1016.2
20260902121035 76 170 0.0 2.0 0.00 0.00 0.00 80 1016.1
20260902120936 76 360 0.0 2.0 0.00 0.00 0.00 80 1016.1
20260902120816 76 360 1.0 2.0 0.00 0.00 0.00 80 1016.1
20260902120716 76 360 1.0 2.0 0.00 0.00 0.00 80 1016.1
20260902120637 76 360 1.0 2.0 0.00 0.00 0.00 80 1016.1
20260902120517 76 360 0.0 2.0 0.00 0.00 0.00 80 1016.0
20260902120417 76 360 0.0 1.0 0.00 0.00 0.00 80 1016.1
20260902120322 76 360 0.0 0.0 0.00 0.00 0.00 80 1016.0
20260902120223 76 360 0.0 0.0 0.00 0.00 0.00 80 1016.1
20260902120123 76 170 0.0 0.0 0.00 0.00 0.00 80 1016.1
20260902120025 76 170 0.0 0.0 0.00 0.00 0.00 80 1016.1
20260902115926 76 170 0.0 0.0 0.00 0.00 0.00 81 1016.1
20260902115826 76 170 0.0 0.0 0.00 0.00 0.00 81 1016.1
20260902115730 76 170 0.0 0.0 0.00 0.00 0.00 81 1016.1
20260902115631 76 169 0.0 0.0 0.00 0.00 0.00 81 1016.1
20260902115530 76 360 0.0 0.0 0.00 0.00 0.00 81 1016.0
20260902115431 76 170 0.0 0.0 0.00 0.00 0.00 81 1016.1
20260902115332 76 360 0.0 0.0 0.00 0.00 0.00 81 1016.0
20260902115233 76 169 0.0 0.0 0.00 0.00 0.00 81 1016.1
20260902115134 76 360 0.0 0.0 0.00 0.00 0.00 81 1016.0
20260902115019 76 360 0.0 1.0 0.00 0.00 0.00 81 1016.1
20260902114920 76 360 0.0 1.0 0.00 0.00 0.00 81 1016.0
20260902114822 76 360 0.0 1.0 0.00 0.00 0.00 81 1016.0
20260902114723 76 360 0.0 1.0 0.00 0.00 0.00 81 1016.0
20260902114621 76 360 0.0 1.0 0.00 0.00 0.00 81 1016.1
20260902114542 76 360 0.0 1.0 0.00 0.00 0.00 81 1016.0
20260902114421 76 360 0.0 1.0 0.00 0.00 0.00 81 1016.0
20260902114325 76 161 0.0 1.0 0.00 0.00 0.00 81 1016.0
20260902114226 76 161 0.0 2.0 0.00 0.00 0.00 81 1015.9
20260902114126 76 360 0.0 2.0 0.00 0.00 0.00 81 1016.0
20260902114028 76 360 0.0 2.0 0.00 0.00 0.00 81 1015.9
20260902113929 76 360 0.0 2.0 0.00 0.00 0.00 81 1016.0
20260902113829 76 360 0.0 2.0 0.00 0.00 0.00 81 1016.0
20260902113729 76 161 0.0 2.0 0.00 0.00 0.00 81 1016.1
20260902113635 76 161 0.0 2.0 0.00 0.00 0.00 81 1016.1
20260902113535 76 161 1.0 2.0 0.00 0.00 0.00 81 1016.0
20260902113416 76 360 1.0 2.0 0.00 0.00 0.00 81 1016.0
20260902113316 76 360 0.0 2.0 0.00 0.00 0.00 81 1016.1
20260902113217 76 360 0.0 2.0 0.00 0.00 0.00 81 1016.0
20260902113117 76 360 0.0 2.0 0.00 0.00 0.00 80 1016.1
20260902113022 76 360 0.0 2.0 0.00 0.00 0.00 80 1016.0
20260902112922 76 360 0.0 2.0 0.00 0.00 0.00 80 1016.0
20260902112824 76 360 1.0 2.0 0.00 0.00 0.00 80 1016.0
20260902112723 76 360 1.0 2.0 0.00 0.00 0.00 80 1016.0
20260902112624 76 360 0.0 2.0 0.00 0.00 0.00 80 1016.0
20260902112524 76 360 0.0 0.0 0.00 0.00 0.00 80 1016.0
20260902112425 76 161 0.0 0.0 0.00 0.00 0.00 80 1016.0
20260902112329 76 161 0.0 0.0 0.00 0.00 0.00 80 1016.0
20260902112231 76 161 0.0 0.0 0.00 0.00 0.00 80 1016.0
20260902112132 76 161 0.0 0.0 0.00 0.00 0.00 80 1016.0
20260902112032 76 161 0.0 1.0 0.00 0.00 0.00 80 1016.1
20260902111933 76 161 0.0 1.0 0.00 0.00 0.00 80 1016.1
20260902111834 76 161 0.0 1.0 0.00 0.00 0.00 80 1016.0
20260902111719 76 161 0.0 1.0 0.00 0.00 0.00 80 1016.1
20260902111620 76 161 0.0 1.0 0.00 0.00 0.00 80 1016.0
20260902111520 76 161 0.0 1.0 0.00 0.00 0.00 80 1016.0
20260902111420 76 161 0.0 1.0 0.00 0.00 0.00 80 1016.0
20260902111321 76 360 0.0 1.0 0.00 0.00 0.00 80 1016.0
20260902111222 76 360 0.0 1.0 0.00 0.00 0.00 80 1016.0
20260902111143 76 161 0.0 1.0 0.00 0.00 0.00 80 1016.0
20260902111027 76 161 0.0 1.0 0.00 0.00 0.00 80 1015.9
20260902110948 76 161 0.0 1.0 0.00 0.00 0.00 80 1016.0
20260902110827 76 360 0.0 1.0 0.00 0.00 0.00 80 1016.0
20260902110727 76 360 0.0 1.0 0.00 0.00 0.00 80 1015.9
20260902110627 76 360 0.0 1.0 0.00 0.00 0.00 80 1015.9
20260902110527 76 360 0.0 1.0 0.00 0.00 0.00 80 1015.9
20260902110427 76 161 0.0 0.0 0.00 0.00 0.00 80 1016.0
20260902110348 76 161 0.0 0.0 0.00 0.00 0.00 80 1015.9
20260902110231 76 161 0.0 0.0 0.00 0.00 0.00 79 1015.9
20260902110131 76 161 0.0 0.0 0.00 0.00 0.00 79 1016.0
20260902110031 76 161 0.0 0.0 0.00 0.00 0.00 79 1016.0
20260902105930 76 161 0.0 0.0 0.00 0.00 0.00 79 1015.9
20260902105831 76 161 0.0 0.0 0.00 0.00 0.00 79 1016.0
20260902105730 77 161 0.0 0.0 0.00 0.00 0.00 79 1015.9
20260902105651 77 161 0.0 0.0 0.00 0.00 0.00 79 1015.9
20260902105530 77 161 0.0 0.0 0.00 0.00 0.00 79 1015.9
20260902105435 77 161 0.0 0.0 0.00 0.00 0.00 79 1015.9
20260902105316 77 161 0.0 0.0 0.00 0.00 0.00 79 1015.9
20260902105217 77 161 0.0 0.0 0.00 0.00 0.00 79 1015.9
20260902105117 77 161 0.0 1.0 0.00 0.00 0.00 79 1015.9
20260902105018 77 161 0.0 2.0 0.00 0.00 0.00 79 1015.9
20260902104918 77 161 0.0 2.0 0.00 0.00 0.00 79 1015.9
20260902104823 77 161 0.0 2.0 0.00 0.00 0.00 79 1016.0
20260902104723 77 360 0.0 2.0 0.00 0.00 0.00 79 1016.0
20260902104623 77 360 0.0 2.0 0.00 0.00 0.00 79 1016.0
20260902104542 77 161 0.0 2.0 0.00 0.00 0.00 79 1016.0
20260902104423 77 161 0.0 2.0 0.00 0.00 0.00 79 1016.0
20260902104323 77 161 1.0 2.0 0.00 0.00 0.00 79 1016.0
20260902104244 77 161 1.0 2.0 0.00 0.00 0.00 79 1016.0
20260902104121 77 161 0.0 2.0 0.00 0.00 0.00 79 1016.0
20260902104026 77 161 0.0 0.0 0.00 0.00 0.00 79 1015.9
20260902103926 77 161 0.0 0.0 0.00 0.00 0.00 79 1015.9
20260902103827 77 161 0.0 0.0 0.00 0.00 0.00 79 1015.9
20260902103728 77 161 0.0 0.0 0.00 0.00 0.00 79 1015.9
20260902103629 77 161 0.0 0.0 0.00 0.00 0.00 79 1015.9
20260902103531 77 161 0.0 0.0 0.00 0.00 0.00 79 1016.0
20260902103416 77 161 0.0 0.0 0.00 0.00 0.00 79 1015.9
20260902103317 77 161 0.0 0.0 0.00 0.00 0.00 79 1015.9
20260902103217 77 161 0.0 0.0 0.00 0.00 0.00 79 1015.9
20260902103119 77 161 0.0 0.0 0.00 0.00 0.00 79 1015.9
20260902103020 77 161 0.0 0.0 0.00 0.00 0.00 79 1015.9
20260902102920 77 161 0.0 0.0 0.00 0.00 0.00 79 1015.9
20260902102822 77 161 0.0 0.0 0.00 0.00 0.00 79 1015.9
20260902102725 77 161 0.0 0.0 0.00 0.00 0.00 79 1016.0
20260902102626 77 161 0.0 0.0 0.00 0.00 0.00 79 1015.9
20260902102528 77 161 0.0 0.0 0.00 0.00 0.00 79 1015.9
20260902102448 77 360 0.0 0.0 0.00 0.00 0.00 79 1015.9
20260902102327 77 161 0.0 0.0 0.00 0.00 0.00 79 1015.9
20260902102227 77 161 0.0 0.0 0.00 0.00 0.00 78 1015.9
20260902102128 77 161 0.0 0.0 0.00 0.00 0.00 78 1016.0
20260902102032 77 161 0.0 0.0 0.00 0.00 0.00 78 1016.0
20260902101933 77 360 0.0 1.0 0.00 0.00 0.00 78 1016.0
20260902101854 77 360 0.0 1.0 0.00 0.00 0.00 78 1016.0
20260902101753 77 360 0.0 1.0 0.00 0.00 0.00 78 1016.1
20260902101633 77 360 0.0 1.0 0.00 0.00 0.00 78 1016.0
20260902101532 78 161 0.0 1.0 0.00 0.00 0.00 78 1016.0
20260902101433 78 161 0.0 1.0 0.00 0.00 0.00 78 1016.0
20260902101317 78 360 0.0 1.0 0.00 0.00 0.00 78 1016.0
20260902101239 78 360 0.0 1.0 0.00 0.00 0.00 77 1016.0
20260902101118 78 360 0.0 1.0 0.00 0.00 0.00 77 1016.0
20260902101020 78 360 0.0 0.0 0.00 0.00 0.00 77 1015.9
20260902100921 78 161 0.0 0.0 0.00 0.00 0.00 77 1016.0
20260902100821 78 360 0.0 0.0 0.00 0.00 0.00 77 1015.9
20260902100722 78 360 0.0 0.0 0.00 0.00 0.00 77 1015.9
20260902100625 78 161 0.0 0.0 0.00 0.00 0.00 77 1015.8
20260902100526 78 360 0.0 0.0 0.00 0.00 0.00 77 1015.8
20260902100426 78 360 0.0 0.0 0.00 0.00 0.00 77 1015.8
20260902100326 78 360 0.0 0.0 0.00 0.00 0.00 77 1015.8
20260902100247 78 360 0.0 0.0 0.00 0.00 0.00 77 1015.8
20260902100146 78 360 0.0 0.0 0.00 0.00 0.00 77 1015.8
20260902100026 78 360 0.0 0.0 0.00 0.00 0.00 77 1015.8
20260902095930 78 360 0.0 0.0 0.00 0.00 0.00 77 1015.8
20260902095833 78 360 0.0 0.0 0.00 0.00 0.00 77 1015.8
20260902095734 78 360 0.0 0.0 0.00 0.00 0.00 77 1015.8
20260902095635 78 360 0.0 2.0 0.00 0.00 0.00 77 1015.8
20260902095555 78 360 0.0 2.0 0.00 0.00 0.00 77 1015.9
20260902095435 78 161 0.0 2.0 0.00 0.00 0.00 77 1015.8
20260902095334 78 360 0.0 2.0 0.00 0.00 0.00 77 1015.8
20260902095240 78 360 0.0 2.0 0.00 0.00 0.00 77 1015.8
20260902095116 78 360 0.0 2.0 0.00 0.00 0.00 77 1015.8
20260902095017 78 360 0.0 2.0 0.00 0.00 0.00 77 1015.8
20260902094917 78 360 0.0 2.0 0.00 0.00 0.00 77 1015.8
20260902094839 78 360 0.0 2.0 0.00 0.00 0.00 77 1015.8
20260902094717 78 161 0.0 2.0 0.00 0.00 0.00 76 1015.8
20260902094637 78 161 1.0 2.0 0.00 0.00 0.00 76 1015.8
20260902094517 78 161 1.0 2.0 0.00 0.00 0.00 76 1015.8
20260902094420 79 161 1.0 2.0 0.00 0.00 0.00 76 1015.8
20260902094321 79 161 1.0 2.0 0.00 0.00 0.00 76 1015.8
20260902094221 79 161 1.0 2.0 0.00 0.00 0.00 76 1015.8
20260902094122 79 161 2.0 2.0 0.00 0.00 0.00 76 1015.8
20260902094021 79 161 2.0 2.0 0.00 0.00 0.00 76 1015.8
20260902093921 79 161 2.0 2.0 0.00 0.00 0.00 76 1015.8
20260902093826 79 161 2.0 2.0 0.00 0.00 0.00 76 1015.8
20260902093726 79 161 1.0 2.0 0.00 0.00 0.00 76 1015.9
20260902093627 79 161 1.0 2.0 0.00 0.00 0.00 76 1015.8
20260902093527 79 161 1.0 2.0 0.00 0.00 0.00 76 1015.9
20260902093428 79 161 1.0 2.0 0.00 0.00 0.00 76 1015.8
20260902093328 79 161 0.0 3.0 0.00 0.00 0.00 76 1015.8
20260902093249 79 161 0.0 3.0 0.00 0.00 0.00 75 1015.8
20260902093132 79 161 1.0 3.0 0.00 0.00 0.00 75 1015.7
20260902093033 79 161 1.0 3.0 0.00 0.00 0.00 76 1015.8
20260902092932 79 161 1.0 3.0 0.00 0.00 0.00 76 1015.8
20260902092834 79 161 1.0 3.0 0.00 0.00 0.00 76 1015.7
20260902092733 79 161 2.0 3.0 0.00 0.00 0.00 76 1015.8
20260902092634 79 161 2.0 3.0 0.00 0.00 0.00 76 1015.7
20260902092519 79 161 2.0 3.0 0.00 0.00 0.00 76 1015.8
20260902092438 79 153 2.0 5.0 0.00 0.00 0.00 76 1015.8
20260902092318 79 360 2.0 5.0 0.00 0.00 0.00 76 1015.8
20260902092219 79 360 2.0 5.0 0.00 0.00 0.00 76 1015.8
20260902092119 79 360 1.0 5.0 0.00 0.00 0.00 76 1015.9
20260902092020 79 360 1.0 5.0 0.00 0.00 0.00 76 1015.8
20260902091921 79 360 1.0 5.0 0.00 0.00 0.00 76 1015.8
20260902091826 79 360 2.0 5.0 0.00 0.00 0.00 76 1015.9
20260902091727 79 152 2.0 5.0 0.00 0.00 0.00 75 1015.8
20260902091628 79 360 2.0 5.0 0.00 0.00 0.00 75 1015.9
20260902091528 79 360 1.0 3.0 0.00 0.00 0.00 75 1015.8
20260902091448 79 360 1.0 3.0 0.00 0.00 0.00 75 1015.8
20260902091328 79 152 2.0 3.0 0.00 0.00 0.00 76 1015.8
20260902091229 79 152 2.0 5.0 0.00 0.00 0.00 76 1015.9
20260902091150 79 360 2.0 5.0 0.00 0.00 0.00 77 1015.9
20260902091034 79 360 2.0 5.0 0.00 0.00 0.00 77 1015.9
20260902090934 79 360 2.0 5.0 0.00 0.00 0.00 76 1015.9
20260902090834 79 360 2.0 5.0 0.00 0.00 0.00 76 1015.9
20260902090734 79 152 2.0 5.0 0.00 0.00 0.00 75 1015.9
20260902090635 79 360 2.0 5.0 0.00 0.00 0.00 75 1015.9
20260902090536 79 151 2.0 5.0 0.00 0.00 0.00 75 1015.9
20260902090419 79 360 3.0 5.0 0.00 0.00 0.00 75 1016.0
20260902090320 79 152 2.0 5.0 0.00 0.00 0.00 75 1015.9
20260902090221 79 360 2.0 3.0 0.00 0.00 0.00 75 1015.9
20260902090121 79 360 2.0 3.0 0.00 0.00 0.00 75 1015.9
20260902090041 79 360 1.0 3.0 0.00 0.00 0.00 75 1015.9
20260902085941 79 360 1.0 3.0 0.00 0.00 0.00 75 1015.9
20260902085842 79 360 1.0 3.0 0.00 0.00 0.00 75 1015.9
20260902085719 79 360 2.0 3.0 0.00 0.00 0.00 75 1015.9
20260902085624 79 360 2.0 3.0 0.00 0.00 0.00 75 1015.9
20260902085544 79 360 2.0 3.0 0.00 0.00 0.00 75 1016.0
20260902085444 79 184 2.0 3.0 0.00 0.00 0.00 75 1015.9
20260902085324 80 360 2.0 3.0 0.00 0.00 0.00 75 1015.9
20260902085224 80 184 2.0 4.0 0.00 0.00 0.00 74 1015.9
20260902085124 80 360 2.0 4.0 0.00 0.00 0.00 74 1015.9
20260902085027 80 360 2.0 4.0 0.00 0.00 0.00 74 1015.9
20260902084932 80 360 2.0 4.0 0.00 0.00 0.00 74 1015.8
20260902084832 80 184 2.0 4.0 0.00 0.00 0.00 74 1015.9
20260902084733 80 360 1.0 4.0 0.00 0.00 0.00 74 1015.9
20260902084634 80 360 2.0 4.0 0.00 0.00 0.00 74 1015.9
20260902084535 80 184 2.0 4.0 0.00 0.00 0.00 74 1015.9
20260902084435 80 360 2.0 4.0 0.00 0.00 0.00 74 1015.9
20260902084320 80 360 2.0 4.0 0.00 0.00 0.00 74 1016.0
20260902084220 80 360 1.0 4.0 0.00 0.00 0.00 74 1015.9
20260902084121 80 360 1.0 8.0 0.00 0.00 0.00 74 1016.0
20260902084042 80 360 2.0 8.0 0.00 0.00 0.00 74 1015.9
20260902083922 80 360 2.0 8.0 0.00 0.00 0.00 74 1016.0
20260902083821 80 360 2.0 8.0 0.00 0.00 0.00 74 1015.9
20260902083723 80 360 2.0 8.0 0.00 0.00 0.00 74 1015.9
20260902083628 80 360 2.0 8.0 0.00 0.00 0.00 74 1015.9
20260902083549 80 360 1.0 8.0 0.00 0.00 0.00 74 1015.9
20260902083427 80 360 1.0 8.0 0.00 0.00 0.00 74 1015.9
20260902083327 80 360 2.0 8.0 0.00 0.00 0.00 73 1015.8
20260902083226 80 360 2.0 8.0 0.00 0.00 0.00 73 1015.9
20260902083126 80 360 2.0 8.0 0.00 0.00 0.00 73 1015.9
20260902083028 80 360 2.0 8.0 0.00 0.00 0.00 73 1015.8
20260902082928 80 360 3.0 8.0 0.00 0.00 0.00 73 1015.8
20260902082830 80 360 4.0 8.0 0.00 0.00 0.00 73 1015.8
20260902082734 80 360 3.0 8.0 0.00 0.00 0.00 73 1015.8
20260902082653 80 360 3.0 6.0 0.00 0.00 0.00 73 1015.8
20260902082533 80 360 2.0 6.0 0.00 0.00 0.00 73 1015.7
20260902082433 80 360 2.0 6.0 0.00 0.00 0.00 73 1015.8
20260902082334 80 360 2.0 6.0 0.00 0.00 0.00 73 1015.7
20260902082234 80 360 2.0 6.0 0.00 0.00 0.00 73 1015.8
20260902082119 80 360 3.0 6.0 0.00 0.00 0.00 73 1015.9
20260902082039 80 360 3.0 6.0 0.00 0.00 0.00 73 1015.8
20260902081919 80 360 3.0 6.0 0.00 0.00 0.00 73 1015.8
20260902081819 80 360 2.0 4.0 0.00 0.00 0.00 73 1015.8
20260902081719 80 360 1.0 4.0 0.00 0.00 0.00 73 1015.9
20260902081639 80 360 1.0 4.0 0.00 0.00 0.00 73 1015.9
20260902081519 80 360 2.0 4.0 0.00 0.00 0.00 73 1015.9
20260902081419 80 360 2.0 4.0 0.00 0.00 0.00 73 1016.0
20260902081324 80 360 2.0 4.0 0.00 0.00 0.00 73 1016.0
20260902081244 80 360 1.0 4.0 0.00 0.00 0.00 73 1015.9
20260902081124 80 360 1.0 4.0 0.00 0.00 0.00 73 1016.0
20260902081024 80 360 1.0 4.0 0.00 0.00 0.00 73 1016.0
20260902080945 81 360 1.0 4.0 0.00 0.00 0.00 72 1016.0
20260902080824 81 360 1.0 4.0 0.00 0.00 0.00 72 1016.0
20260902080725 81 360 2.0 4.0 0.00 0.00 0.00 72 1016.0
20260902080645 81 360 2.0 4.0 0.00 0.00 0.00 72 1016.0
20260902080529 81 360 2.0 4.0 0.00 0.00 0.00 72 1016.0
20260902080430 81 360 2.0 4.0 0.00 0.00 0.00 72 1016.1
20260902080350 81 360 1.0 4.0 0.00 0.00 0.00 72 1016.1
20260902080229 81 360 1.0 3.0 0.00 0.00 0.00 72 1016.0
20260902080129 81 360 1.0 3.0 0.00 0.00 0.00 72 1016.0
20260902080049 81 360 1.0 3.0 0.00 0.00 0.00 72 1016.0
20260902075929 81 360 1.0 2.0 0.00 0.00 0.00 73 1016.0
20260902075830 81 360 1.0 2.0 0.00 0.00 0.00 73 1016.1
20260902075733 81 360 1.0 4.0 0.00 0.00 0.00 73 1016.0
20260902075634 81 360 1.0 4.0 0.00 0.00 0.00 72 1016.1
20260902075554 81 360 1.0 4.0 0.00 0.00 0.00 72 1016.0
20260902075433 81 175 1.0 4.0 0.00 0.00 0.00 72 1016.0
20260902075333 81 175 1.0 4.0 0.00 0.00 0.00 72 1016.0
20260902075234 81 360 1.0 4.0 0.00 0.00 0.00 72 1016.0
20260902075116 81 175 2.0 4.0 0.00 0.00 0.00 72 1016.0
20260902075040 81 360 2.0 4.0 0.00 0.00 0.00 72 1015.9
20260902074920 81 360 2.0 6.0 0.00 0.00 0.00 72 1016.0
20260902074820 81 360 2.0 6.0 0.00 0.00 0.00 72 1016.0
20260902074721 81 360 2.0 6.0 0.00 0.00 0.00 72 1016.0
20260902074620 81 175 1.0 6.0 0.00 0.00 0.00 72 1016.0
20260902074520 81 175 1.0 6.0 0.00 0.00 0.00 72 1016.0
20260902074422 81 360 1.0 6.0 0.00 0.00 0.00 72 1016.0
20260902074343 81 360 2.0 6.0 0.00 0.00 0.00 72 1016.0
20260902074227 81 360 2.0 6.0 0.00 0.00 0.00 72 1016.0
20260902074148 81 360 3.0 6.0 0.00 0.00 0.00 72 1016.0
20260902074027 81 360 2.0 5.0 0.00 0.00 0.00 72 1016.0
20260902073927 81 360 2.0 5.0 0.00 0.00 0.00 72 1015.9
20260902073827 81 360 2.0 5.0 0.00 0.00 0.00 72 1016.0
20260902073728 81 360 2.0 5.0 0.00 0.00 0.00 72 1016.0
20260902073649 81 360 2.0 5.0 0.00 0.00 0.00 72 1016.0
20260902073528 81 360 2.0 5.0 0.00 0.00 0.00 72 1016.0
20260902073452 81 360 2.0 8.0 0.00 0.00 0.00 72 1016.0
20260902073332 81 360 3.0 8.0 0.00 0.00 0.00 72 1016.0
20260902073234 81 360 3.0 8.0 0.00 0.00 0.00 72 1016.0
20260902073134 81 360 2.0 8.0 0.00 0.00 0.00 72 1016.0
20260902073034 81 360 2.0 8.0 0.00 0.00 0.00 72 1015.9
20260902072933 81 360 2.0 8.0 0.00 0.00 0.00 72 1016.0
20260902072835 81 360 3.0 8.0 0.00 0.00 0.00 72 1016.0
20260902072720 81 360 3.0 8.0 0.00 0.00 0.00 72 1016.0
20260902072620 81 360 3.0 8.0 0.00 0.00 0.00 72 1016.0
20260902072541 81 360 3.0 6.0 0.00 0.00 0.00 72 1016.0
20260902072421 81 360 3.0 6.0 0.00 0.00 0.00 72 1016.0
20260902072321 81 360 3.0 6.0 0.00 0.00 0.00 72 1016.0
20260902072222 81 360 2.0 6.0 0.00 0.00 0.00 72 1016.1
20260902072124 81 360 2.0 9.0 0.00 0.00 0.00 71 1016.0
20260902072023 81 360 2.0 9.0 0.00 0.00 0.00 72 1016.0
20260902071948 81 360 2.0 9.0 0.00 0.00 0.00 71 1016.0
20260902071827 81 360 2.0 9.0 0.00 0.00 0.00 72 1015.9
20260902071728 81 360 3.0 9.0 0.00 0.00 0.00 71 1016.0
20260902071649 81 360 2.0 9.0 0.00 0.00 0.00 71 1016.0
20260902071550 81 360 2.0 9.0 0.00 0.00 0.00 71 1016.0
20260902071449 81 360 3.0 6.0 0.00 0.00 0.00 71 1016.0
20260902071329 81 360 3.0 6.0 0.00 0.00 0.00 71 1016.0
20260902071230 81 360 2.0 6.0 0.00 0.00 0.00 71 1016.0
20260902071150 82 360 2.0 6.0 0.00 0.00 0.00 71 1016.1
20260902071034 81 360 2.0 6.0 0.00 0.00 0.00 71 1016.0
20260902070935 82 360 2.0 6.0 0.00 0.00 0.00 71 1016.1
20260902070816 82 360 2.0 6.0 0.00 0.00 0.00 71 1016.1
20260902070717 82 360 2.0 6.0 0.00 0.00 0.00 71 1016.1
20260902070617 82 360 2.0 6.0 0.00 0.00 0.00 71 1016.2
20260902070518 82 360 2.0 6.0 0.00 0.00 0.00 71 1016.2
20260902070422 82 360 3.0 6.0 0.00 0.00 0.00 71 1016.2
20260902070343 82 360 3.0 6.0 0.00 0.00 0.00 71 1016.1
20260902070216 82 360 2.0 10.0 0.00 0.00 0.00 71 1016.1
20260902070116 82 360 2.0 10.0 0.00 0.00 0.00 71 1016.1
20260902070017 82 360 2.0 10.0 0.00 0.00 0.00 71 1016.1
20260902065917 82 360 2.0 11.0 0.00 0.00 0.00 71 1016.1
20260902065818 82 360 2.0 11.0 0.00 0.00 0.00 71 1016.2
20260902065723 82 360 2.0 11.0 0.00 0.00 0.00 71 1016.1
20260902065623 82 360 3.0 11.0 0.00 0.00 0.00 71 1016.1
20260902065524 82 360 3.0 11.0 0.00 0.00 0.00 71 1016.1
20260902065425 82 360 3.0 11.0 0.00 0.00 0.00 71 1016.1
20260902065326 82 360 3.0 11.0 0.00 0.00 0.00 71 1016.0
20260902065226 82 360 4.0 11.0 0.00 0.00 0.00 71 1016.1
20260902065130 82 360 3.0 11.0 0.00 0.00 0.00 72 1016.1
20260902065032 82 360 3.0 11.0 0.00 0.00 0.00 72 1016.1
20260902064932 82 360 3.0 9.0 0.00 0.00 0.00 72 1016.1
20260902064832 82 360 3.0 9.0 0.00 0.00 0.00 72 1016.1
20260902064731 82 360 2.0 9.0 0.00 0.00 0.00 72 1016.1
20260902064632 82 360 2.0 9.0 0.00 0.00 0.00 73 1016.1
20260902064533 82 360 2.0 9.0 0.00 0.00 0.00 73 1016.1
20260902064417 82 360 2.0 9.0 0.00 0.00 0.00 72 1016.0
20260902064317 82 360 2.0 9.0 0.00 0.00 0.00 72 1016.1
20260902064217 82 360 2.0 9.0 0.00 0.00 0.00 72 1016.0
20260902064118 82 360 2.0 9.0 0.00 0.00 0.00 72 1016.0
20260902064038 82 360 3.0 10.0 0.00 0.00 0.00 72 1016.1
20260902063918 82 360 3.0 10.0 0.00 0.00 0.00 72 1016.1
20260902063819 82 360 3.0 10.0 0.00 0.00 0.00 72 1016.1
20260902063722 82 360 2.0 10.0 0.00 0.00 0.00 72 1016.1
20260902063623 82 360 2.0 10.0 0.00 0.00 0.00 72 1016.1
20260902063543 82 360 1.0 10.0 0.00 0.00 0.00 72 1016.1
20260902063416 82 360 2.0 10.0 0.00 0.00 0.00 72 1016.0
20260902063317 82 360 3.0 10.0 0.00 0.00 0.00 72 1016.1
20260902063218 82 360 3.0 10.0 0.00 0.00 0.00 72 1016.1
20260902063122 82 360 3.0 10.0 0.00 0.00 0.00 72 1016.1
20260902063043 82 360 3.0 10.0 0.00 0.00 0.00 72 1016.1
20260902062922 82 360 3.0 10.0 0.00 0.00 0.00 72 1016.1
20260902062824 82 360 3.0 10.0 0.00 0.00 0.00 72 1016.1
20260902062722 82 360 2.0 10.0 0.00 0.00 0.00 72 1016.1
20260902062622 82 360 3.0 10.0 0.00 0.00 0.00 72 1016.2
20260902062523 82 360 3.0 10.0 0.00 0.00 0.00 72 1016.0
20260902062444 82 360 3.0 10.0 0.00 0.00 0.00 73 1016.2
20260902062327 82 360 2.0 9.0 0.00 0.00 0.00 72 1016.1
20260902062228 82 360 2.0 9.0 0.00 0.00 0.00 72 1016.1
20260902062129 82 360 3.0 9.0 0.00 0.00 0.00 73 1016.1
20260902062050 82 360 3.0 8.0 0.00 0.00 0.00 73 1016.1
20260902061929 82 360 3.0 9.0 0.00 0.00 0.00 73 1016.1
20260902061848 82 360 2.0 9.0 0.00 0.00 0.00 73 1016.1
20260902061728 82 360 2.0 9.0 0.00 0.00 0.00 72 1016.0
20260902061633 82 360 2.0 9.0 0.00 0.00 0.00 72 1016.0
20260902061532 82 360 2.0 9.0 0.00 0.00 0.00 72 1016.1
20260902061434 82 360 2.0 9.0 0.00 0.00 0.00 72 1016.1
20260902061335 82 360 3.0 9.0 0.00 0.00 0.00 72 1016.1
20260902061235 82 360 3.0 9.0 0.00 0.00 0.00 72 1016.1
20260902061136 82 360 3.0 9.0 0.00 0.00 0.00 72 1016.1
20260902061020 82 360 3.0 10.0 0.00 0.00 0.00 72 1016.1
20260902060940 82 360 3.0 10.0 0.00 0.00 0.00 72 1016.2
20260902060819 82 360 3.0 10.0 0.00 0.00 0.00 72 1016.1
20260902060720 82 360 3.0 10.0 0.00 0.00 0.00 72 1016.1
20260902060620 82 360 3.0 10.0 0.00 0.00 0.00 72 1016.1
20260902060520 82 360 3.0 13.0 0.00 0.00 0.00 72 1016.1
20260902060442 82 360 3.0 13.0 0.00 0.00 0.00 72 1016.0
20260902060322 82 360 3.0 13.0 0.00 0.00 0.00 72 1016.1
20260902060226 83 360 4.0 13.0 0.00 0.00 0.00 72 1016.1
20260902060127 83 360 4.0 13.0 0.00 0.00 0.00 72 1016.1
20260902060027 83 360 3.0 13.0 0.00 0.00 0.00 72 1016.0
20260902055927 83 360 2.0 13.0 0.00 0.00 0.00 72 1016.1
20260902055849 83 360 2.0 13.0 0.00 0.00 0.00 72 1016.0
20260902055724 83 360 3.0 13.0 0.00 0.00 0.00 72 1016.1
20260902055624 83 360 3.0 13.0 0.00 0.00 0.00 72 1016.1
20260902055524 83 360 3.0 13.0 0.00 0.00 0.00 72 1016.1
20260902055449 83 360 2.0 13.0 0.00 0.00 0.00 72 1016.1
20260902055328 83 360 3.0 12.0 0.00 0.00 0.00 72 1016.1
20260902055229 83 360 4.0 12.0 0.00 0.00 0.00 72 1016.1
20260902055150 83 360 5.0 12.0 0.00 0.00 0.00 72 1016.1
20260902055050 83 360 6.0 12.0 0.00 0.00 0.00 72 1016.2
20260902054928 83 360 4.0 12.0 0.00 0.00 0.00 72 1016.1
20260902054828 83 360 5.0 12.0 0.00 0.00 0.00 72 1016.1
20260902054729 83 360 4.0 12.0 0.00 0.00 0.00 72 1016.1
20260902054650 83 360 5.0 12.0 0.00 0.00 0.00 72 1016.2
20260902054533 83 360 4.0 12.0 0.00 0.00 0.00 72 1016.1
20260902054433 83 360 5.0 12.0 0.00 0.00 0.00 72 1016.0
20260902054354 83 360 5.0 12.0 0.00 0.00 0.00 72 1016.1
20260902054254 83 360 5.0 12.0 0.00 0.00 0.00 71 1016.1
20260902054133 83 360 4.0 12.0 0.00 0.00 0.00 71 1016.1
20260902054033 83 360 4.0 11.0 0.00 0.00 0.00 71 1016.1
20260902053933 83 360 4.0 11.0 0.00 0.00 0.00 71 1016.1
20260902053855 83 360 4.0 11.0 0.00 0.00 0.00 71 1016.1
20260902053738 83 360 4.0 11.0 0.00 0.00 0.00 71 1016.1
20260902053618 83 360 4.0 13.0 0.00 0.00 0.00 71 1016.1
20260902053517 83 360 4.0 13.0 0.00 0.00 0.00 71 1016.0
20260902053418 83 360 4.0 13.0 0.00 0.00 0.00 71 1016.0
20260902053318 83 360 4.0 13.0 0.00 0.00 0.00 71 1016.0
20260902053218 83 360 5.0 13.0 0.00 0.00 0.00 71 1016.0
20260902053140 83 360 6.0 13.0 0.00 0.00 0.00 71 1016.0
20260902053023 83 360 6.0 13.0 0.00 0.00 0.00 71 1016.1
20260902052944 83 360 6.0 13.0 0.00 0.00 0.00 71 1016.1
20260902052845 83 360 5.0 13.0 0.00 0.00 0.00 71 1016.0
20260902052723 83 360 5.0 10.0 0.00 0.00 0.00 71 1016.1
20260902052643 83 360 5.0 13.0 0.00 0.00 0.00 71 1016.1
20260902052523 83 360 5.0 13.0 0.00 0.00 0.00 71 1016.1
20260902052423 83 360 4.0 13.0 0.00 0.00 0.00 71 1016.0
20260902052324 83 360 3.0 13.0 0.00 0.00 0.00 71 1016.0
20260902052228 83 360 4.0 13.0 0.00 0.00 0.00 71 1016.1
20260902052128 83 360 5.0 13.0 0.00 0.00 0.00 71 1016.1
20260902052029 83 360 6.0 13.0 0.00 0.00 0.00 71 1016.0
20260902051930 84 360 6.0 13.0 0.00 0.00 0.00 71 1016.1
20260902051830 84 360 6.0 13.0 0.00 0.00 0.00 71 1016.1
20260902051731 84 360 6.0 16.0 0.00 0.00 0.00 70 1016.1
20260902051631 84 360 5.0 16.0 0.00 0.00 0.00 70 1016.1
20260902051556 84 360 5.0 16.0 0.00 0.00 0.00 70 1016.1
20260902051434 84 360 6.0 16.0 0.00 0.00 0.00 70 1016.1
20260902051334 84 360 5.0 16.0 0.00 0.00 0.00 70 1016.1
20260902051234 84 360 6.0 16.0 0.00 0.00 0.00 70 1016.1
20260902051135 84 360 7.0 16.0 0.00 0.00 0.00 70 1016.1
20260902051054 84 360 7.0 16.0 0.00 0.00 0.00 70 1016.1
20260902050934 84 360 7.0 16.0 0.00 0.00 0.00 70 1016.1
20260902050820 84 360 7.0 13.0 0.00 0.00 0.00 70 1016.1
20260902050720 84 360 6.0 13.0 0.00 0.00 0.00 70 1016.1
20260902050620 84 360 6.0 13.0 0.00 0.00 0.00 70 1016.1
20260902050521 84 360 5.0 14.0 0.00 0.00 0.00 70 1016.2
20260902050422 84 360 5.0 14.0 0.00 0.00 0.00 70 1016.1
20260902050322 84 360 6.0 14.0 0.00 0.00 0.00 70 1016.2
20260902050227 84 360 6.0 14.0 0.00 0.00 0.00 70 1016.2
20260902050127 84 360 7.0 14.0 0.00 0.00 0.00 70 1016.2
20260902050028 84 360 7.0 14.0 0.00 0.00 0.00 70 1016.2
20260902045922 84 360 8.0 14.0 0.00 0.00 0.00 70 1016.1
20260902045823 84 360 8.0 14.0 0.00 0.00 0.00 70 1016.2
20260902045723 84 360 7.0 14.0 0.00 0.00 0.00 70 1016.2
20260902045622 84 360 7.0 14.0 0.00 0.00 0.00 70 1016.1
20260902045543 84 360 6.0 13.0 0.00 0.00 0.00 70 1016.2
20260902045426 84 360 7.0 11.0 0.00 0.00 0.00 69 1016.2
20260902045327 84 360 7.0 11.0 0.00 0.00 0.00 69 1016.2
20260902045227 84 360 6.0 11.0 0.00 0.00 0.00 69 1016.1
20260902045148 84 360 6.0 11.0 0.00 0.00 0.00 69 1016.2
20260902045026 84 360 6.0 10.0 0.00 0.00 0.00 69 1016.2
20260902044945 84 360 7.0 10.0 0.00 0.00 0.00 69 1016.2
20260902044825 84 360 6.0 10.0 0.00 0.00 0.00 69 1016.2
20260902044726 84 360 6.0 10.0 0.00 0.00 0.00 69 1016.1
20260902044630 84 360 6.0 10.0 0.00 0.00 0.00 69 1016.2
20260902044530 84 360 5.0 12.0 0.00 0.00 0.00 69 1016.1
20260902044431 84 360 5.0 12.0 0.00 0.00 0.00 69 1016.1
20260902044351 84 182 5.0 12.0 0.00 0.00 0.00 69 1016.1
20260902044251 84 360 5.0 12.0 0.00 0.00 0.00 69 1016.1
20260902044130 85 360 6.0 12.0 0.00 0.00 0.00 69 1016.1
20260902044051 85 360 6.0 12.0 0.00 0.00 0.00 68 1016.1
20260902043950 85 360 7.0 12.0 0.00 0.00 0.00 68 1016.1
20260902043834 85 360 7.0 12.0 0.00 0.00 0.00 68 1016.1
20260902043735 85 360 7.0 12.0 0.00 0.00 0.00 68 1016.1
20260902043635 85 360 6.0 12.0 0.00 0.00 0.00 68 1016.0
20260902043536 85 360 6.0 12.0 0.00 0.00 0.00 68 1016.0
20260902043458 85 360 6.0 12.0 0.00 0.00 0.00 68 1016.1
20260902043357 85 360 5.0 12.0 0.00 0.00 0.00 68 1016.0
20260902043257 85 360 6.0 12.0 0.00 0.00 0.00 68 1016.0
20260902043135 85 360 6.0 12.0 0.00 0.00 0.00 68 1016.1
20260902043019 85 360 6.0 15.0 0.00 0.00 0.00 68 1016.0
20260902042939 85 360 6.0 15.0 0.00 0.00 0.00 68 1016.1
20260902042820 85 360 6.0 15.0 0.00 0.00 0.00 68 1016.1
20260902042719 85 360 7.0 15.0 0.00 0.00 0.00 67 1016.1
20260902042620 85 360 7.0 15.0 0.00 0.00 0.00 67 1016.1
20260902042520 85 360 7.0 15.0 0.00 0.00 0.00 67 1016.1
20260902042420 85 360 8.0 15.0 0.00 0.00 0.00 67 1016.1
20260902042319 85 360 9.0 15.0 0.00 0.00 0.00 67 1016.1
20260902042224 85 360 8.0 15.0 0.00 0.00 0.00 67 1016.0
20260902042125 85 360 8.0 12.0 0.00 0.00 0.00 67 1016.1
20260902042045 85 360 8.0 13.0 0.00 0.00 0.00 67 1016.1
20260902041924 85 360 8.0 13.0 0.00 0.00 0.00 67 1016.1
20260902041824 85 360 7.0 13.0 0.00 0.00 0.00 67 1016.1
20260902041725 85 360 7.0 13.0 0.00 0.00 0.00 67 1016.2
20260902041626 86 360 6.0 13.0 0.00 0.00 0.00 67 1016.1
20260902041529 86 360 6.0 13.0 0.00 0.00 0.00 67 1016.1
20260902041429 86 360 8.0 13.0 0.00 0.00 0.00 66 1016.1
20260902041330 86 360 9.0 13.0 0.00 0.00 0.00 66 1016.1
20260902041228 86 360 9.0 13.0 0.00 0.00 0.00 66 1016.1
20260902041128 86 360 8.0 13.0 0.00 0.00 0.00 66 1016.1
20260902041027 86 360 8.0 13.0 0.00 0.00 0.00 66 1016.1
20260902040928 86 360 8.0 13.0 0.00 0.00 0.00 66 1016.1
20260902040827 86 360 8.0 13.0 0.00 0.00 0.00 65 1016.2
20260902040732 86 360 8.0 13.0 0.00 0.00 0.00 65 1016.1
20260902040632 86 360 7.0 13.0 0.00 0.00 0.00 65 1016.2
20260902040533 86 360 7.0 12.0 0.00 0.00 0.00 65 1016.1
20260902040432 86 360 8.0 12.0 0.00 0.00 0.00 65 1016.1
20260902040332 86 360 9.0 12.0 0.00 0.00 0.00 65 1016.1
20260902040233 86 360 9.0 12.0 0.00 0.00 0.00 65 1016.1
20260902040117 86 360 8.0 12.0 0.00 0.00 0.00 65 1016.0
20260902040019 86 360 8.0 12.0 0.00 0.00 0.00 65 1016.0
20260902035919 86 360 7.0 12.0 0.00 0.00 0.00 65 1016.0
20260902035842 86 171 7.0 12.0 0.00 0.00 0.00 64 1016.0
20260902035740 86 360 7.0 12.0 0.00 0.00 0.00 64 1016.1
20260902035619 86 360 7.0 15.0 0.00 0.00 0.00 64 1016.1
20260902035521 86 360 8.0 15.0 0.00 0.00 0.00 64 1016.0
20260902035422 86 360 8.0 15.0 0.00 0.00 0.00 64 1016.0
20260902035326 86 360 7.0 15.0 0.00 0.00 0.00 64 1016.0
20260902035227 86 360 7.0 15.0 0.00 0.00 0.00 64 1016.1
20260902035127 86 360 7.0 15.0 0.00 0.00 0.00 64 1016.0
20260902035027 86 360 8.0 15.0 0.00 0.00 0.00 64 1016.0
20260902034928 86 360 9.0 15.0 0.00 0.00 0.00 64 1016.0
20260902034829 86 360 9.0 15.0 0.00 0.00 0.00 64 1016.0
20260902034749 86 360 8.0 15.0 0.00 0.00 0.00 64 1015.9
20260902034633 86 360 8.0 15.0 0.00 0.00 0.00 64 1015.9
20260902034533 86 360 9.0 15.0 0.00 0.00 0.00 64 1015.9
20260902034433 86 360 10.0 15.0 0.00 0.00 0.00 64 1015.9
20260902034335 86 360 9.0 15.0 0.00 0.00 0.00 64 1015.9
20260902034233 86 360 7.0 14.0 0.00 0.00 0.00 64 1015.8
20260902034134 86 360 7.0 11.0 0.00 0.00 0.00 64 1015.9
20260902034034 86 360 7.0 11.0 0.00 0.00 0.00 64 1015.8
20260902033919 86 360 6.0 11.0 0.00 0.00 0.00 63 1015.8
20260902033820 86 360 6.0 11.0 0.00 0.00 0.00 63 1015.8
20260902033720 86 360 7.0 11.0 0.00 0.00 0.00 63 1015.7
20260902033620 87 360 7.0 11.0 0.00 0.00 0.00 63 1015.8
20260902033521 86 360 7.0 11.0 0.00 0.00 0.00 63 1015.8
20260902033422 87 360 7.0 11.0 0.00 0.00 0.00 63 1015.7
20260902033327 86 360 7.0 11.0 0.00 0.00 0.00 63 1015.8
20260902033228 86 360 6.0 11.0 0.00 0.00 0.00 63 1015.7
20260902033148 87 360 5.0 10.0 0.00 0.00 0.00 63 1015.8
20260902033027 87 360 5.0 10.0 0.00 0.00 0.00 63 1015.7
20260902032927 87 360 5.0 10.0 0.00 0.00 0.00 63 1015.6
20260902032830 87 360 6.0 10.0 0.00 0.00 0.00 63 1015.8
20260902032730 87 360 6.0 10.0 0.00 0.00 0.00 63 1015.7
20260902032635 87 360 7.0 10.0 0.00 0.00 0.00 63 1015.6
20260902032555 87 360 7.0 10.0 0.00 0.00 0.00 62 1015.7
20260902032454 87 360 6.0 10.0 0.00 0.00 0.00 62 1015.7
20260902032316 87 360 5.0 9.0 0.00 0.00 0.00 62 1015.8
20260902032236 87 360 5.0 9.0 0.00 0.00 0.00 62 1015.7
20260902032157 87 360 6.0 9.0 0.00 0.00 0.00 62 1015.8
20260902032056 87 360 6.0 9.0 0.00 0.00 0.00 62 1015.8
20260902031935 87 360 6.0 9.0 0.00 0.00 0.00 62 1015.7
20260902031820 87 360 6.0 9.0 0.00 0.00 0.00 62 1015.8
20260902031720 87 360 5.0 9.0 0.00 0.00 0.00 62 1015.7
20260902031621 87 360 5.0 9.0 0.00 0.00 0.00 62 1015.7
20260902031520 87 360 5.0 8.0 0.00 0.00 0.00 62 1015.7
20260902031420 87 360 4.0 8.0 0.00 0.00 0.00 62 1015.7
20260902031321 87 360 4.0 8.0 0.00 0.00 0.00 62 1015.6
20260902031242 87 360 3.0 8.0 0.00 0.00 0.00 62 1015.6
20260902031121 87 360 3.0 6.0 0.00 0.00 0.00 62 1015.6
20260902031026 87 360 3.0 5.0 0.00 0.00 0.00 62 1015.5
20260902030927 87 360 4.0 5.0 0.00 0.00 0.00 61 1015.5
20260902030828 87 360 3.0 5.0 0.00 0.00 0.00 61 1015.5
20260902030729 87 360 3.0 5.0 0.00 0.00 0.00 61 1015.5
20260902030629 87 360 3.0 6.0 0.00 0.00 0.00 61 1015.5
20260902030529 87 360 3.0 6.0 0.00 0.00 0.00 61 1015.5
20260902030434 87 360 3.0 6.0 0.00 0.00 0.00 61 1015.5
20260902030355 87 360 3.0 6.0 0.00 0.00 0.00 61 1015.5
20260902030235 87 360 3.0 6.0 0.00 0.00 0.00 61 1015.4
20260902030155 87 360 3.0 6.0 0.00 0.00 0.00 61 1015.3
20260902030035 87 360 4.0 6.0 0.00 0.00 0.00 61 1015.4
20260902025936 87 360 4.0 6.0 0.00 0.00 0.00 61 1015.4
20260902025817 87 360 4.0 6.0 0.00 0.00 0.00 60 1015.4
20260902025721 87 360 4.0 6.0 0.00 0.00 0.00 60 1015.3
20260902025622 87 360 4.0 6.0 0.00 0.00 0.00 60 1015.3
20260902025523 88 360 5.0 6.0 0.00 0.00 0.00 60 1015.4
20260902025423 88 360 5.0 8.0 0.00 0.00 0.00 60 1015.3
20260902025323 88 360 5.0 8.0 0.00 0.00 0.00 60 1015.2
20260902025224 88 360 5.0 9.0 0.00 0.00 0.00 60 1015.3
20260902025125 88 360 4.0 9.0 0.00 0.00 0.00 60 1015.2
20260902025030 88 360 4.0 9.0 0.00 0.00 0.00 60 1015.2
20260902024930 88 360 4.0 9.0 0.00 0.00 0.00 60 1015.1
20260902024830 88 360 4.0 9.0 0.00 0.00 0.00 60 1015.2
20260902024732 88 360 5.0 9.0 0.00 0.00 0.00 60 1015.1
20260902024633 88 360 5.0 9.0 0.00 0.00 0.00 60 1015.0
20260902024533 88 360 5.0 9.0 0.00 0.00 0.00 59 1015.0
20260902024417 88 150 5.0 9.0 0.00 0.00 0.00 59 1015.1
20260902024318 88 360 5.0 9.0 0.00 0.00 0.00 59 1015.0
20260902024220 88 360 5.0 9.0 0.00 0.00 0.00 59 1015.0
20260902024140 88 360 5.0 9.0 0.00 0.00 0.00 59 1015.0
20260902024020 88 360 5.0 9.0 0.00 0.00 0.00 59 1015.0
20260902023919 88 360 5.0 9.0 0.00 0.00 0.00 59 1015.0
20260902023821 88 360 5.0 9.0 0.00 0.00 0.00 59 1014.9
20260902023725 88 360 5.0 9.0 0.00 0.00 0.00 59 1014.9
20260902023646 88 173 5.0 8.0 0.00 0.00 0.00 59 1014.8
20260902023525 88 360 5.0 8.0 0.00 0.00 0.00 59 1014.8
20260902023446 88 360 5.0 8.0 0.00 0.00 0.00 59 1014.7
20260902023326 88 360 5.0 8.0 0.00 0.00 0.00 58 1014.7
20260902023246 88 360 5.0 8.0 0.00 0.00 0.00 58 1014.7
20260902023126 88 360 4.0 8.0 0.00 0.00 0.00 58 1014.7
20260902023027 88 360 5.0 8.0 0.00 0.00 0.00 58 1014.7
20260902022932 88 360 5.0 8.0 0.00 0.00 0.00 58 1014.7
20260902022852 89 360 5.0 8.0 0.00 0.00 0.00 58 1014.6
20260902022730 89 360 5.0 9.0 0.00 0.00 0.00 58 1014.6
20260902022631 89 360 5.0 9.0 0.00 0.00 0.00 58 1014.6
20260902022532 89 360 4.0 9.0 0.00 0.00 0.00 58 1014.6
20260902022434 89 360 4.0 9.0 0.00 0.00 0.00 58 1014.6
20260902022318 89 360 4.0 10.0 0.00 0.00 0.00 58 1014.6
20260902022239 89 360 5.0 10.0 0.00 0.00 0.00 58 1014.6
20260902022119 89 360 6.0 10.0 0.00 0.00 0.00 58 1014.5
20260902022019 89 360 6.0 10.0 0.00 0.00 0.00 58 1014.6
20260902021920 89 360 5.0 10.0 0.00 0.00 0.00 58 1014.5
20260902021841 89 360 5.0 10.0 0.00 0.00 0.00 58 1014.5
20260902021721 89 360 6.0 10.0 0.00 0.00 0.00 58 1014.4
20260902021643 89 360 6.0 10.0 0.00 0.00 0.00 58 1014.4
20260902021526 89 360 5.0 11.0 0.00 0.00 0.00 57 1014.4
20260902021447 89 360 5.0 11.0 0.00 0.00 0.00 57 1014.4
20260902021325 89 360 5.0 11.0 0.00 0.00 0.00 57 1014.3
20260902021246 89 360 6.0 12.0 0.00 0.00 0.00 57 1014.3
20260902021125 89 360 6.0 12.0 0.00 0.00 0.00 57 1014.3
20260902021045 89 360 6.0 12.0 0.00 0.00 0.00 57 1014.3
20260902020944 89 360 6.0 13.0 0.00 0.00 0.00 57 1014.3
20260902020823 89 360 7.0 13.0 0.00 0.00 0.00 57 1014.3
20260902020725 89 360 7.0 13.0 0.00 0.00 0.00 57 1014.4
20260902020631 89 360 7.0 13.0 0.00 0.00 0.00 57 1014.3
20260902020532 90 360 8.0 13.0 0.00 0.00 0.00 57 1014.3
20260902020433 90 360 8.0 13.0 0.00 0.00 0.00 56 1014.4
20260902020333 90 360 9.0 13.0 0.00 0.00 0.00 56 1014.4
20260902020233 90 360 9.0 15.0 0.00 0.00 0.00 56 1014.3
20260902020134 90 360 8.0 15.0 0.00 0.00 0.00 56 1014.3
20260902020039 90 360 7.0 15.0 0.00 0.00 0.00 56 1014.3
20260902015918 90 360 7.0 15.0 0.00 0.00 0.00 56 1014.3
20260902015821 90 360 7.0 15.0 0.00 0.00 0.00 56 1014.3
20260902015720 90 360 8.0 15.0 0.00 0.00 0.00 56 1014.2
20260902015622 90 360 9.0 15.0 0.00 0.00 0.00 56 1014.2
20260902015542 90 360 9.0 15.0 0.00 0.00 0.00 56 1014.3
20260902015416 90 360 8.0 13.0 0.00 0.00 0.00 55 1014.2
20260902015341 90 360 8.0 13.0 0.00 0.00 0.00 55 1014.3
20260902015220 90 360 8.0 13.0 0.00 0.00 0.00 55 1014.3
20260902015120 90 157 9.0 13.0 0.00 0.00 0.00 55 1014.2
20260902015019 90 360 9.0 13.0 0.00 0.00 0.00 55 1014.2
20260902014920 90 360 9.0 14.0 0.00 0.00 0.00 55 1014.3
20260902014822 90 360 9.0 18.0 0.00 0.00 0.00 55 1014.2
20260902014742 90 360 8.0 19.0 0.00 0.00 0.00 55 1014.2
20260902014622 90 360 7.0 19.0 0.00 0.00 0.00 55 1014.2
20260902014526 90 360 7.0 19.0 0.00 0.00 0.00 55 1014.2
20260902014447 90 360 7.0 19.0 0.00 0.00 0.00 55 1014.2
20260902014326 91 360 8.0 19.0 0.00 0.00 0.00 55 1014.2
20260902014226 91 360 10.0 19.0 0.00 0.00 0.00 54 1014.2
20260902014127 91 360 13.0 20.0 0.00 0.00 0.00 54 1014.1
20260902014027 91 360 13.0 20.0 0.00 0.00 0.00 54 1014.2
20260902013928 91 360 13.0 20.0 0.00 0.00 0.00 54 1014.2
20260902013833 91 360 12.0 20.0 0.00 0.00 0.00 54 1014.2
20260902013733 91 360 12.0 20.0 0.00 0.00 0.00 54 1014.2
20260902013634 91 143 12.0 20.0 0.00 0.00 0.00 54 1014.2
20260902013555 91 360 13.0 20.0 0.00 0.00 0.00 54 1014.2
20260902013434 91 360 11.0 20.0 0.00 0.00 0.00 54 1014.2
20260902013335 91 360 11.0 20.0 0.00 0.00 0.00 54 1014.1
20260902013220 91 360 9.0 13.0 0.00 0.00 0.00 54 1014.1
20260902013120 91 360 8.0 13.0 0.00 0.00 0.00 54 1014.1
20260902013020 91 360 8.0 13.0 0.00 0.00 0.00 54 1014.1
20260902012940 91 360 7.0 12.0 0.00 0.00 0.00 54 1014.1
20260902012822 91 360 7.0 12.0 0.00 0.00 0.00 54 1014.0
20260902012742 91 360 7.0 13.0 0.00 0.00 0.00 53 1014.0
20260902012616 91 360 7.0 13.0 0.00 0.00 0.00 53 1014.0
20260902012520 91 360 6.0 13.0 0.00 0.00 0.00 53 1014.0
20260902012420 91 360 6.0 13.0 0.00 0.00 0.00 53 1014.0
20260902012341 91 360 7.0 13.0 0.00 0.00 0.00 53 1014.0
20260902012221 91 360 8.0 13.0 0.00 0.00 0.00 53 1014.0
20260902012121 91 360 9.0 13.0 0.00 0.00 0.00 53 1013.9
20260902012023 91 360 9.0 13.0 0.00 0.00 0.00 53 1013.9
20260902011923 91 360 10.0 13.0 0.00 0.00 0.00 52 1013.9
20260902011844 91 360 8.0 13.0 0.00 0.00 0.00 52 1013.9
20260902011727 91 360 6.0 13.0 0.00 0.00 0.00 52 1013.9
20260902011627 91 360 4.0 8.0 0.00 0.00 0.00 52 1013.8
20260902011528 92 360 3.0 5.0 0.00 0.00 0.00 52 1013.8
20260902011428 92 360 3.0 5.0 0.00 0.00 0.00 52 1013.8
20260902011350 92 360 3.0 5.0 0.00 0.00 0.00 52 1013.8
20260902011230 92 360 3.0 5.0 0.00 0.00 0.00 52 1013.8
20260902011131 92 360 3.0 5.0 0.00 0.00 0.00 51 1013.8
20260902011056 92 360 3.0 8.0 0.00 0.00 0.00 51 1013.8
20260902010936 92 360 2.0 8.0 0.00 0.00 0.00 51 1013.8
20260902010856 92 360 3.0 8.0 0.00 0.00 0.00 51 1013.8
20260902010736 92 360 3.0 8.0 0.00 0.00 0.00 51 1013.7
20260902010656 92 360 2.0 9.0 0.00 0.00 0.00 51 1013.8
20260902010556 92 360 2.0 9.0 0.00 0.00 0.00 51 1013.8
20260902010435 92 360 3.0 9.0 0.00 0.00 0.00 51 1013.7
20260902010336 92 360 3.0 9.0 0.00 0.00 0.00 51 1013.7
20260902010240 92 360 4.0 9.0 0.00 0.00 0.00 51 1013.7
20260902010120 92 360 5.0 11.0 0.00 0.00 0.00 51 1013.7
20260902010041 92 360 5.0 11.0 0.00 0.00 0.00 51 1013.5
20260902005920 92 360 6.0 11.0 0.00 0.00 0.00 51 1013.5
20260902005822 92 360 7.0 11.0 0.00 0.00 0.00 51 1013.7
20260902005720 92 360 7.0 11.0 0.00 0.00 0.00 51 1013.5
20260902005621 92 360 6.0 11.0 0.00 0.00 0.00 51 1013.5
20260902005525 92 360 7.0 11.0 0.00 0.00 0.00 51 1013.6
20260902005426 92 360 6.0 11.0 0.00 0.00 0.00 51 1013.6
20260902005325 92 360 5.0 11.0 0.00 0.00 0.00 51 1013.7
20260902005246 92 360 5.0 9.0 0.00 0.00 0.00 51 1013.7
20260902005125 92 360 4.0 9.0 0.00 0.00 0.00 51 1013.5
20260902005026 93 360 5.0 9.0 0.00 0.00 0.00 51 1013.5
20260902004926 93 360 4.0 9.0 0.00 0.00 0.00 51 1013.7
20260902004830 93 360 5.0 9.0 0.00 0.00 0.00 51 1013.7
20260902004731 93 360 5.0 8.0 0.00 0.00 0.00 51 1013.7
20260902004632 93 360 5.0 8.0 0.00 0.00 0.00 50 1013.8
20260902004531 93 360 5.0 8.0 0.00 0.00 0.00 51 1013.7
20260902004432 93 360 4.0 8.0 0.00 0.00 0.00 50 1013.8
20260902004353 93 360 4.0 8.0 0.00 0.00 0.00 50 1013.8
20260902004231 93 360 4.0 8.0 0.00 0.00 0.00 50 1013.8
20260902004116 93 360 4.0 8.0 0.00 0.00 0.00 50 1013.8
20260902004016 93 360 4.0 8.0 0.00 0.00 0.00 50 1013.8
20260902003937 93 360 4.0 8.0 0.00 0.00 0.00 50 1013.8
20260902003817 93 360 4.0 8.0 0.00 0.00 0.00 50 1013.8
20260902003718 93 360 4.0 8.0 0.00 0.00 0.00 50 1013.9
20260902003618 93 360 4.0 8.0 0.00 0.00 0.00 50 1013.9
20260902003519 93 360 4.0 8.0 0.00 0.00 0.00 50 1013.9
20260902003424 93 360 5.0 8.0 0.00 0.00 0.00 50 1014.0
20260902003325 93 360 4.0 8.0 0.00 0.00 0.00 50 1013.9
20260902003225 93 360 4.0 8.0 0.00 0.00 0.00 50 1014.0
20260902003126 93 360 3.0 8.0 0.00 0.00 0.00 50 1014.0
20260902003025 93 360 3.0 6.0 0.00 0.00 0.00 50 1014.0
20260902002926 93 360 4.0 9.0 0.00 0.00 0.00 50 1014.0
20260902002828 94 360 4.0 9.0 0.00 0.00 0.00 50 1014.0
20260902002732 94 360 3.0 9.0 0.00 0.00 0.00 49 1014.0
20260902002632 94 360 4.0 9.0 0.00 0.00 0.00 49 1014.0
20260902002534 94 360 4.0 9.0 0.00 0.00 0.00 49 1014.0
20260902002433 94 360 4.0 9.0 0.00 0.00 0.00 49 1014.0
20260902002335 94 360 5.0 9.0 0.00 0.00 0.00 49 1014.0
20260902002236 94 360 5.0 10.0 0.00 0.00 0.00 49 1014.0
20260902002120 94 360 6.0 10.0 0.00 0.00 0.00 49 1014.0
20260902002021 94 360 5.0 10.0 0.00 0.00 0.00 49 1014.0
20260902001922 94 360 4.0 10.0 0.00 0.00 0.00 49 1014.0
20260902001823 94 161 4.0 10.0 0.00 0.00 0.00 49 1014.0
20260902001723 94 360 4.0 10.0 0.00 0.00 0.00 49 1014.0
20260902001623 94 360 4.0 13.0 0.00 0.00 0.00 49 1014.0
20260902001522 94 360 5.0 13.0 0.00 0.00 0.00 49 1014.0
20260902001428 94 360 5.0 13.0 0.00 0.00 0.00 48 1013.9
20260902001329 94 360 5.0 13.0 0.00 0.00 0.00 48 1013.9
20260902001229 94 360 5.0 13.0 0.00 0.00 0.00 48 1013.9
20260902001131 94 360 4.0 14.0 0.00 0.00 0.00 48 1013.9
20260902001030 94 360 4.0 14.0 0.00 0.00 0.00 48 1014.0
20260902000951 94 360 4.0 15.0 0.00 0.00 0.00 48 1013.9
20260902000829 94 360 4.0 16.0 0.00 0.00 0.00 48 1013.9
20260902000733 94 360 5.0 16.0 0.00 0.00 0.00 48 1014.0
20260902000654 94 360 7.0 16.0 0.00 0.00 0.00 48 1013.9
20260902000553 94 360 8.0 16.0 0.00 0.00 0.00 48 1013.9
20260902000433 94 360 9.0 16.0 0.00 0.00 0.00 48 1013.9
20260902000334 94 360 8.0 16.0 0.00 0.00 0.00 48 1013.9
20260902000234 94 103 9.0 16.0 0.00 0.00 0.00 48 1013.9
20260902000134 94 360 9.0 16.0 0.00 0.00 0.00 48 1013.9
20260902000019 95 360 8.0 16.0 0.00 0.00 0.00 48 1013.9
20260901235917 95 360 8.0 14.0 0.00 0.00 0.00 48 1013.9
20260901235819 95 360 7.0 14.0 0.00 0.00 0.00 48 1013.9
20260901235718 95 173 6.0 15.0 0.00 0.00 0.00 47 1013.9
20260901235619 95 360 6.0 15.0 0.00 0.00 0.00 48 1013.9
20260901235521 95 360 5.0 16.0 0.00 0.00 0.00 48 1013.9
20260901235422 95 360 5.0 16.0 0.00 0.00 0.00 48 1013.9
20260901235327 95 360 5.0 16.0 0.00 0.00 0.00 47 1013.9
20260901235227 95 360 7.0 16.0 0.00 0.00 0.00 47 1013.9
20260901235128 95 105 7.0 16.0 0.00 0.00 0.00 47 1013.8
20260901235048 95 360 9.0 16.0 0.00 0.00 0.00 47 1013.9
20260901234928 95 360 9.0 16.0 0.00 0.00 0.00 47 1013.8
20260901234828 95 360 8.0 16.0 0.00 0.00 0.00 47 1014.0
20260901234728 95 360 7.0 16.0 0.00 0.00 0.00 47 1013.8
20260901234629 95 360 5.0 15.0 0.00 0.00 0.00 47 1013.8
20260901234535 95 360 6.0 15.0 0.00 0.00 0.00 46 1013.8
20260901234436 95 360 6.0 15.0 0.00 0.00 0.00 46 1013.8
20260901234317 95 106 8.0 15.0 0.00 0.00 0.00 46 1013.9
20260901234217 96 360 9.0 15.0 0.00 0.00 0.00 46 1013.9
20260901234118 96 360 8.0 15.0 0.00 0.00 0.00 46 1013.9
20260901234019 96 360 8.0 15.0 0.00 0.00 0.00 45 1013.8
20260901233923 96 360 7.0 13.0 0.00 0.00 0.00 45 1013.8
20260901233824 96 360 7.0 13.0 0.00 0.00 0.00 45 1013.8
20260901233725 96 360 6.0 13.0 0.00 0.00 0.00 45 1013.8
20260901233626 96 360 5.0 11.0 0.00 0.00 0.00 45 1013.8
20260901233527 96 360 5.0 11.0 0.00 0.00 0.00 45 1013.8
20260901233427 96 360 4.0 11.0 0.00 0.00 0.00 46 1013.8
20260901233331 96 360 4.0 11.0 0.00 0.00 0.00 46 1013.7
20260901233252 96 360 5.0 11.0 0.00 0.00 0.00 46 1013.8
20260901233132 96 360 5.0 11.0 0.00 0.00 0.00 45 1013.7
20260901233032 96 82 6.0 11.0 0.00 0.00 0.00 45 1013.8
20260901232933 96 49 6.0 11.0 0.00 0.00 0.00 45 1013.7
20260901232835 97 360 6.0 11.0 0.00 0.00 0.00 45 1013.7
20260901232735 97 360 5.0 11.0 0.00 0.00 0.00 45 1013.7
20260901232619 97 360 3.0 8.0 0.00 0.00 0.00 45 1013.8
20260901232520 97 360 3.0 8.0 0.00 0.00 0.00 45 1013.7
20260901232419 97 360 3.0 17.0 0.00 0.00 0.00 45 1013.8
20260901232321 97 360 3.0 17.0 0.00 0.00 0.00 45 1013.8
20260901232221 97 360 3.0 17.0 0.00 0.00 0.00 45 1013.7
20260901232122 97 360 3.0 17.0 0.00 0.00 0.00 46 1013.7
20260901232026 97 140 3.0 17.0 0.00 0.00 0.00 45 1013.7
20260901231927 97 360 4.0 17.0 0.00 0.00 0.00 45 1013.8
20260901231828 97 360 6.0 17.0 0.00 0.00 0.00 45 1013.8
20260901231747 97 360 8.0 17.0 0.00 0.00 0.00 45 1013.7
20260901231647 97 149 10.0 17.0 0.00 0.00 0.00 45 1013.8
20260901231526 97 141 10.0 16.0 0.00 0.00 0.00 45 1013.7
20260901231446 97 360 10.0 16.0 0.00 0.00 0.00 45 1013.7
20260901231345 97 360 9.0 16.0 0.00 0.00 0.00 44 1013.7
20260901231225 97 360 9.0 16.0 0.00 0.00 0.00 44 1013.7
20260901231129 97 360 7.0 16.0 0.00 0.00 0.00 45 1013.7
20260901231050 97 360 7.0 14.0 0.00 0.00 0.00 45 1013.7
20260901230930 97 123 7.0 13.0 0.00 0.00 0.00 45 1013.7
20260901230831 97 360 9.0 13.0 0.00 0.00 0.00 44 1013.6
20260901230732 97 360 9.0 13.0 0.00 0.00 0.00 44 1013.7
20260901230633 97 360 7.0 13.0 0.00 0.00 0.00 44 1013.7
20260901230518 97 360 6.0 13.0 0.00 0.00 0.00 44 1013.7
20260901230419 97 360 5.0 11.0 0.00 0.00 0.00 44 1013.7
20260901230339 97 360 5.0 11.0 0.00 0.00 0.00 44 1013.8
20260901230219 97 360 5.0 11.0 0.00 0.00 0.00 44 1013.6
20260901230120 97 360 3.0 11.0 0.00 0.00 0.00 45 1013.7
20260901230021 97 360 4.0 11.0 0.00 0.00 0.00 44 1013.7
20260901225941 97 89 5.0 11.0 0.00 0.00 0.00 44 1013.8
20260901225842 97 360 6.0 11.0 0.00 0.00 0.00 44 1013.8
20260901225725 97 360 5.0 12.0 0.00 0.00 0.00 44 1013.7
20260901225646 97 360 5.0 12.0 0.00 0.00 0.00 44 1013.7
20260901225545 97 360 4.0 12.0 0.00 0.00 0.00 43 1013.7
20260901225444 97 360 3.0 12.0 0.00 0.00 0.00 43 1013.7
20260901225323 97 360 4.0 13.0 0.00 0.00 0.00 43 1013.7
20260901225224 97 360 5.0 13.0 0.00 0.00 0.00 43 1013.7
20260901225125 97 360 7.0 13.0 0.00 0.00 0.00 43 1013.7
20260901225025 97 360 8.0 13.0 0.00 0.00 0.00 43 1013.7
20260901224930 97 360 7.0 13.0 0.00 0.00 0.00 43 1013.7
20260901224831 97 360 7.0 13.0 0.00 0.00 0.00 43 1013.5
20260901224731 97 149 7.0 13.0 0.00 0.00 0.00 43 1013.6
20260901224632 97 360 6.0 13.0 0.00 0.00 0.00 43 1013.6
20260901224533 97 360 6.0 13.0 0.00 0.00 0.00 42 1013.5
20260901224433 98 360 5.0 11.0 0.00 0.00 0.00 42 1013.5
20260901224317 98 360 7.0 11.0 0.00 0.00 0.00 42 1013.6
20260901224218 98 360 6.0 11.0 0.00 0.00 0.00 42 1013.6
20260901224119 98 360 5.0 10.0 0.00 0.00 0.00 42 1013.6
20260901224018 98 360 4.0 10.0 0.00 0.00 0.00 42 1013.7
20260901223919 98 360 3.0 9.0 0.00 0.00 0.00 42 1013.5
20260901223819 97 360 3.0 9.0 0.00 0.00 0.00 42 1013.6
20260901223720 97 360 4.0 9.0 0.00 0.00 0.00 42 1013.6
20260901223644 97 360 4.0 9.0 0.00 0.00 0.00 43 1013.6
20260901223523 97 360 4.0 9.0 0.00 0.00 0.00 42 1013.7
20260901223424 97 360 4.0 9.0 0.00 0.00 0.00 43 1013.7
20260901223324 97 360 5.0 9.0 0.00 0.00 0.00 43 1013.7
20260901223225 97 360 5.0 9.0 0.00 0.00 0.00 43 1013.7
20260901223124 97 360 5.0 9.0 0.00 0.00 0.00 43 1013.7
20260901223025 97 360 5.0 10.0 0.00 0.00 0.00 43 1013.7
20260901222931 97 360 5.0 10.0 0.00 0.00 0.00 43 1013.7
20260901222833 97 360 4.0 10.0 0.00 0.00 0.00 44 1013.7
20260901222732 97 360 4.0 10.0 0.00 0.00 0.00 43 1013.6
20260901222633 97 360 5.0 10.0 0.00 0.00 0.00 43 1013.7
20260901222534 97 360 5.0 10.0 0.00 0.00 0.00 43 1013.7
20260901222434 97 360 5.0 10.0 0.00 0.00 0.00 42 1013.8
20260901222319 97 360 5.0 10.0 0.00 0.00 0.00 44 1013.8
20260901222218 97 360 4.0 10.0 0.00 0.00 0.00 44 1013.8
20260901222119 97 360 4.0 10.0 0.00 0.00 0.00 44 1013.7
20260901222020 96 360 5.0 10.0 0.00 0.00 0.00 42 1013.8
20260901221920 96 360 6.0 10.0 0.00 0.00 0.00 42 1013.8
20260901221821 96 360 6.0 10.0 0.00 0.00 0.00 43 1013.8
20260901221721 96 360 6.0 10.0 0.00 0.00 0.00 44 1013.8
20260901221625 96 360 6.0 11.0 0.00 0.00 0.00 44 1013.9
20260901221526 96 360 6.0 13.0 0.00 0.00 0.00 43 1013.9
20260901221426 96 360 7.0 13.0 0.00 0.00 0.00 43 1013.7
20260901221348 97 360 6.0 13.0 0.00 0.00 0.00 45 1013.9
20260901221227 97 360 6.0 13.0 0.00 0.00 0.00 45 1013.9
20260901221127 97 360 5.0 13.0 0.00 0.00 0.00 45 1013.8
20260901221028 97 360 6.0 13.0 0.00 0.00 0.00 45 1013.8
20260901220933 97 360 6.0 13.0 0.00 0.00 0.00 44 1013.9
20260901220833 97 360 6.0 13.0 0.00 0.00 0.00 44 1013.9
20260901220753 97 360 7.0 13.0 0.00 0.00 0.00 45 1013.8
20260901220633 97 360 8.0 13.0 0.00 0.00 0.00 44 1013.8
20260901220534 97 360 7.0 13.0 0.00 0.00 0.00 44 1013.8
20260901220433 98 360 6.0 12.0 0.00 0.00 0.00 45 1013.7
20260901220334 98 360 5.0 9.0 0.00 0.00 0.00 45 1013.9
20260901220217 98 360 5.0 9.0 0.00 0.00 0.00 44 1013.8
20260901220118 98 360 4.0 11.0 0.00 0.00 0.00 44 1013.9
20260901220039 98 360 3.0 11.0 0.00 0.00 0.00 43 1013.8
20260901215918 98 360 3.0 11.0 0.00 0.00 0.00 43 1013.9
20260901215819 98 360 3.0 11.0 0.00 0.00 0.00 43 1013.8
20260901215719 98 360 3.0 11.0 0.00 0.00 0.00 43 1013.8
20260901215620 98 360 4.0 11.0 0.00 0.00 0.00 42 1013.8
20260901215525 98 360 6.0 11.0 0.00 0.00 0.00 42 1013.9
20260901215445 98 155 7.0 11.0 0.00 0.00 0.00 42 1013.9
20260901215325 98 360 6.0 11.0 0.00 0.00 0.00 42 1013.9
20260901215224 98 360 5.0 10.0 0.00 0.00 0.00 42 1013.8
20260901215123 98 360 3.0 6.0 0.00 0.00 0.00 42 1013.8
20260901215024 98 360 3.0 6.0 0.00 0.00 0.00 41 1013.8
20260901214924 98 173 2.0 6.0 0.00 0.00 0.00 43 1013.8
20260901214825 98 360 1.0 6.0 0.00 0.00 0.00 43 1013.8
20260901214729 98 360 1.0 6.0 0.00 0.00 0.00 43 1013.8
20260901214629 97 37 1.0 8.0 0.00 0.00 0.00 43 1013.9
20260901214529 97 360 2.0 8.0 0.00 0.00 0.00 43 1013.9
20260901214430 97 360 3.0 10.0 0.00 0.00 0.00 43 1013.9
20260901214330 97 360 4.0 10.0 0.00 0.00 0.00 43 1013.8
20260901214251 97 22 4.0 10.0 0.00 0.00 0.00 43 1013.8
20260901214131 97 80 5.0 15.0 0.00 0.00 0.00 43 1013.9
20260901214034 97 97 5.0 15.0 0.00 0.00 0.00 43 1013.8
20260901213916 97 102 6.0 15.0 0.00 0.00 0.00 43 1013.9
20260901213816 97 360 6.0 15.0 0.00 0.00 0.00 43 1013.9
20260901213716 97 360 6.0 15.0 0.00 0.00 0.00 42 1013.8
20260901213617 97 360 7.0 15.0 0.00 0.00 0.00 43 1013.9
20260901213517 97 360 8.0 15.0 0.00 0.00 0.00 42 1013.9
20260901213422 97 360 9.0 15.0 0.00 0.00 0.00 42 1013.9
20260901213322 97 360 8.0 15.0 0.00 0.00 0.00 43 1013.9
20260901213222 97 360 7.0 14.0 0.00 0.00 0.00 44 1013.9
20260901213122 97 360 6.0 12.0 0.00 0.00 0.00 43 1013.9
20260901213023 97 123 8.0 12.0 0.00 0.00 0.00 43 1013.9
20260901212922 97 360 8.0 12.0 0.00 0.00 0.00 43 1013.9
20260901212823 97 360 7.0 12.0 0.00 0.00 0.00 42 1014.0
20260901212723 97 360 5.0 12.0 0.00 0.00 0.00 43 1013.9
20260901212627 97 360 4.0 9.0 0.00 0.00 0.00 43 1013.9
20260901212548 97 360 4.0 9.0 0.00 0.00 0.00 43 1013.9
20260901212427 97 360 5.0 9.0 0.00 0.00 0.00 43 1013.9
20260901212327 97 360 5.0 9.0 0.00 0.00 0.00 43 1014.0
20260901212227 97 360 5.0 9.0 0.00 0.00 0.00 42 1013.9
20260901212148 98 360 4.0 9.0 0.00 0.00 0.00 42 1013.9
20260901212027 98 360 3.0 9.0 0.00 0.00 0.00 41 1013.9
20260901211947 99 360 4.0 9.0 0.00 0.00 0.00 42 1013.9
20260901211851 99 100 3.0 9.0 0.00 0.00 0.00 41 1014.0
20260901211730 99 360 3.0 9.0 0.00 0.00 0.00 41 1014.0
20260901211631 99 360 2.0 9.0 0.00 0.00 0.00 41 1014.0
20260901211532 99 202 2.0 5.0 0.00 0.00 0.00 41 1014.0
20260901211432 99 360 2.0 5.0 0.00 0.00 0.00 41 1014.1
20260901211332 99 360 2.0 5.0 0.00 0.00 0.00 41 1014.1
20260901211216 99 360 2.0 4.0 0.00 0.00 0.00 42 1014.1
20260901211117 98 360 2.0 5.0 0.00 0.00 0.00 43 1014.0
20260901211017 98 135 1.0 5.0 0.00 0.00 0.00 43 1014.0
20260901210917 98 360 1.0 8.0 0.00 0.00 0.00 42 1014.1
20260901210817 98 360 2.0 8.0 0.00 0.00 0.00 43 1014.1
20260901210719 97 92 3.0 8.0 0.00 0.00 0.00 43 1014.1
20260901210619 97 360 3.0 8.0 0.00 0.00 0.00 43 1014.1
20260901210524 97 360 3.0 8.0 0.00 0.00 0.00 43 1014.3
20260901210425 97 360 3.0 8.0 0.00 0.00 0.00 43 1014.3
20260901210345 97 360 3.0 8.0 0.00 0.00 0.00 43 1014.2
20260901210224 97 360 4.0 8.0 0.00 0.00 0.00 42 1014.4
20260901210125 97 360 5.0 8.0 0.00 0.00 0.00 42 1014.3
20260901210025 97 360 5.0 9.0 0.00 0.00 0.00 43 1014.3
20260901205926 97 360 4.0 11.0 0.00 0.00 0.00 43 1014.3
20260901205850 97 360 3.0 11.0 0.00 0.00 0.00 43 1014.4
20260901205729 96 360 2.0 11.0 0.00 0.00 0.00 44 1014.4
20260901205649 96 360 2.0 11.0 0.00 0.00 0.00 43 1014.4
20260901205549 96 360 3.0 11.0 0.00 0.00 0.00 43 1014.4
20260901205448 96 360 4.0 11.0 0.00 0.00 0.00 43 1014.5
20260901205327 97 360 6.0 11.0 0.00 0.00 0.00 43 1014.5
20260901205227 97 360 7.0 11.0 0.00 0.00 0.00 43 1014.6
20260901205128 97 360 7.0 10.0 0.00 0.00 0.00 42 1014.6
20260901205034 98 360 8.0 10.0 0.00 0.00 0.00 42 1014.6
20260901204934 98 360 6.0 10.0 0.00 0.00 0.00 43 1014.6
20260901204835 98 360 6.0 10.0 0.00 0.00 0.00 42 1014.5
20260901204735 99 360 5.0 10.0 0.00 0.00 0.00 41 1014.6
20260901204635 99 360 5.0 10.0 0.00 0.00 0.00 41 1014.6
20260901204555 99 360 3.0 10.0 0.00 0.00 0.00 41 1014.6
20260901204435 99 360 2.0 8.0 0.00 0.00 0.00 42 1014.7
20260901204320 98 360 3.0 8.0 0.00 0.00 0.00 43 1014.7
20260901204240 98 360 4.0 8.0 0.00 0.00 0.00 43 1014.7
20260901204120 98 360 4.0 8.0 0.00 0.00 0.00 42 1014.7
20260901204020 97 360 4.0 8.0 0.00 0.00 0.00 42 1014.7
20260901203920 97 360 4.0 8.0 0.00 0.00 0.00 43 1014.8
20260901203840 97 360 5.0 8.0 0.00 0.00 0.00 42 1014.8
20260901203741 97 360 4.0 8.0 0.00 0.00 0.00 42 1014.8
20260901203619 98 360 3.0 8.0 0.00 0.00 0.00 44 1014.8
20260901203521 98 360 3.0 10.0 0.00 0.00 0.00 44 1014.8
20260901203425 98 360 3.0 10.0 0.00 0.00 0.00 44 1014.8
20260901203325 98 360 3.0 10.0 0.00 0.00 0.00 44 1014.8
20260901203227 98 360 3.0 10.0 0.00 0.00 0.00 44 1014.7
20260901203128 98 360 2.0 10.0 0.00 0.00 0.00 43 1014.8
20260901203029 98 360 3.0 10.0 0.00 0.00 0.00 43 1014.8
20260901202929 98 360 3.0 10.0 0.00 0.00 0.00 43 1014.8
20260901202835 98 360 5.0 10.0 0.00 0.00 0.00 43 1014.8
20260901202756 99 360 5.0 10.0 0.00 0.00 0.00 42 1014.9
20260901202654 100 360 4.0 10.0 0.00 0.00 0.00 41 1014.9
20260901202534 100 360 2.0 8.0 0.00 0.00 0.00 42 1014.9
20260901202434 100 360 2.0 6.0 0.00 0.00 0.00 41 1014.9
20260901202335 100 360 2.0 6.0 0.00 0.00 0.00 41 1015.0
20260901202236 100 360 4.0 6.0 0.00 0.00 0.00 40 1015.0
20260901202120 100 360 4.0 6.0 0.00 0.00 0.00 41 1015.0
20260901202020 99 360 3.0 8.0 0.00 0.00 0.00 41 1015.0
20260901201920 99 360 3.0 8.0 0.00 0.00 0.00 42 1015.0
20260901201821 99 360 2.0 8.0 0.00 0.00 0.00 43 1015.1
20260901201721 99 360 2.0 9.0 0.00 0.00 0.00 43 1015.1
20260901201622 98 360 2.0 9.0 0.00 0.00 0.00 43 1015.2
20260901201522 98 360 1.0 9.0 0.00 0.00 0.00 44 1015.1
20260901201447 98 157 2.0 9.0 0.00 0.00 0.00 45 1015.2
20260901201327 98 360 2.0 9.0 0.00 0.00 0.00 45 1015.1
20260901201247 97 360 4.0 11.0 0.00 0.00 0.00 45 1015.2
20260901201127 97 360 4.0 11.0 0.00 0.00 0.00 45 1015.2
20260901201026 97 360 5.0 11.0 0.00 0.00 0.00 45 1015.2
20260901200926 97 167 4.0 11.0 0.00 0.00 0.00 46 1015.2
20260901200827 98 360 4.0 11.0 0.00 0.00 0.00 45 1015.2
20260901200727 97 360 4.0 11.0 0.00 0.00 0.00 46 1015.3
20260901200632 97 360 6.0 11.0 0.00 0.00 0.00 46 1015.2
20260901200553 97 360 6.0 11.0 0.00 0.00 0.00 45 1015.2
20260901200431 97 360 6.0 10.0 0.00 0.00 0.00 45 1015.3
20260901200332 98 360 5.0 10.0 0.00 0.00 0.00 44 1015.3
20260901200253 98 360 4.0 9.0 0.00 0.00 0.00 43 1015.3
20260901200132 98 360 3.0 6.0 0.00 0.00 0.00 42 1015.3
20260901200033 98 360 2.0 8.0 0.00 0.00 0.00 42 1015.3
20260901195916 99 360 0.0 8.0 0.00 0.00 0.00 42 1015.3
20260901195838 98 360 1.0 8.0 0.00 0.00 0.00 43 1015.3
20260901195717 98 360 1.0 8.0 0.00 0.00 0.00 43 1015.3
20260901195617 98 360 2.0 8.0 0.00 0.00 0.00 43 1015.3
20260901195539 98 360 3.0 8.0 0.00 0.00 0.00 43 1015.4
20260901195439 98 360 4.0 8.0 0.00 0.00 0.00 43 1015.5
20260901195318 98 360 4.0 8.0 0.00 0.00 0.00 43 1015.5
20260901195219 99 360 3.0 8.0 0.00 0.00 0.00 42 1015.4
20260901195123 99 360 2.0 6.0 0.00 0.00 0.00 44 1015.4
20260901195023 99 207 1.0 8.0 0.00 0.00 0.00 44 1015.4
20260901194924 99 360 2.0 8.0 0.00 0.00 0.00 43 1015.5
20260901194824 99 360 2.0 8.0 0.00 0.00 0.00 43 1015.5
20260901194726 99 360 1.0 8.0 0.00 0.00 0.00 43 1015.5
20260901194626 99 360 2.0 8.0 0.00 0.00 0.00 43 1015.6
20260901194530 99 256 1.0 8.0 0.00 0.00 0.00 43 1015.6
20260901194430 98 360 3.0 8.0 0.00 0.00 0.00 44 1015.5
20260901194331 98 360 3.0 8.0 0.00 0.00 0.00 44 1015.5
20260901194231 97 360 3.0 8.0 0.00 0.00 0.00 45 1015.5
20260901194132 97 360 3.0 6.0 0.00 0.00 0.00 45 1015.6
20260901194053 97 360 3.0 6.0 0.00 0.00 0.00 45 1015.6
20260901193930 97 360 3.0 6.0 0.00 0.00 0.00 44 1015.6
20260901193831 97 360 3.0 7.0 0.00 0.00 0.00 44 1015.6
20260901193735 97 360 2.0 4.0 0.00 0.00 0.00 46 1015.6
20260901193616 97 360 1.0 9.0 0.00 0.00 0.00 45 1015.6
20260901193516 97 143 1.0 9.0 0.00 0.00 0.00 45 1015.7
20260901193416 96 360 1.0 9.0 0.00 0.00 0.00 46 1015.6
20260901193317 96 360 1.0 9.0 0.00 0.00 0.00 46 1015.6
20260901193218 95 360 2.0 9.0 0.00 0.00 0.00 47 1015.7
20260901193143 95 360 2.0 9.0 0.00 0.00 0.00 47 1015.6
20260901193022 95 360 3.0 9.0 0.00 0.00 0.00 47 1015.6
20260901192923 95 360 5.0 9.0 0.00 0.00 0.00 46 1015.6
20260901192826 95 86 6.0 9.0 0.00 0.00 0.00 46 1015.7